Observation data for Crowell on 06/20/2019      Previous  Date  Next       Current Mesonet Observations  Soil Data  Daily Summary Page  Observations in Plain Language
KCR1 200500Z 15002KT 24/20 A2976 RMK A01 T02380200  RH  079%=      5-min Rain = 0
KCR1 200501Z 12002KT 24/20 A2976 RMK A01 T02370200  RH  080%=      5-min Rain = 0
KCR1 200502Z 09002KT 24/20 A2976 RMK A01 T02370200  RH  080%=      5-min Rain = 0
KCR1 200503Z 09003KT 24/20 A2976 RMK A01 T02380200  RH  079%=      5-min Rain = 0
KCR1 200504Z 09003KT 24/20 A2976 RMK A01 T02380200  RH  079%=      5-min Rain = 0
KCR1 200505Z 10003KT 24/20 A2976 RMK A01 T02390201  RH  079%=      5-min Rain = 0
KCR1 200506Z 09003KT 24/20 A2976 RMK A01 T02390200  RH  079%=      5-min Rain = 0
KCR1 200507Z 10003KT 24/20 A2976 RMK A01 T02390200  RH  079%=      5-min Rain = 0
KCR1 200508Z 11003KT 24/20 A2976 RMK A01 T02390200  RH  079%=      5-min Rain = 0
KCR1 200509Z 13002KT 24/20 A2976 RMK A01 T02390200  RH  079%=      5-min Rain = 0
KCR1 200510Z 14003KT 24/20 A2976 RMK A01 T02380201  RH  079%=      5-min Rain = 0
KCR1 200511Z 14004KT 24/20 A2976 RMK A01 T02370201  RH  080%=      5-min Rain = 0
KCR1 200512Z 14003KT 24/20 A2976 RMK A01 T02360201  RH  081%=      5-min Rain = 0
KCR1 200513Z 14004KT 24/20 A2976 RMK A01 T02350200  RH  081%=      5-min Rain = 0
KCR1 200514Z 14004KT 24/20 A2976 RMK A01 T02350200  RH  081%=      5-min Rain = 0
KCR1 200515Z 15003KT 24/20 A2976 RMK A01 T02360200  RH  081%=      5-min Rain = 0
KCR1 200516Z 16002KT 24/20 A2976 RMK A01 T02360201  RH  081%=      5-min Rain = 0
KCR1 200517Z 16002KT 24/20 A2976 RMK A01 T02350201  RH  081%=      5-min Rain = 0
KCR1 200518Z 16002KT 23/20 A2976 RMK A01 T02340201  RH  082%=      5-min Rain = 0
KCR1 200519Z 17003KT 23/20 A2976 RMK A01 T02340201  RH  082%=      5-min Rain = 0
KCR1 200520Z 16003KT 23/20 A2976 RMK A01 T02330201  RH  082%=      5-min Rain = 0
KCR1 200521Z 16003KT 23/20 A2976 RMK A01 T02330202  RH  083%=      5-min Rain = 0
KCR1 200522Z 16003KT 23/20 A2976 RMK A01 T02330202  RH  082%=      5-min Rain = 0
KCR1 200523Z 16004KT 23/20 A2976 RMK A01 T02340202  RH  082%=      5-min Rain = 0
KCR1 200524Z 16005KT 23/20 A2976 RMK A01 T02340202  RH  082%=      5-min Rain = 0
KCR1 200525Z 17005KT 23/20 A2976 RMK A01 T02340202  RH  082%=      5-min Rain = 0
KCR1 200526Z 17005KT 23/20 A2976 RMK A01 T02330202  RH  083%=      5-min Rain = 0
KCR1 200527Z 18005KT 23/20 A2976 RMK A01 T02320202  RH  084%=      5-min Rain = 0
KCR1 200528Z 17005KT 23/20 A2976 RMK A01 T02310202  RH  084%=      5-min Rain = 0
KCR1 200529Z 17005KT 23/20 A2976 RMK A01 T02300203  RH  084%=      5-min Rain = 0
KCR1 200530Z 17005KT 23/20 A2976 RMK A01 T02290203  RH  085%=      5-min Rain = 0
KCR1 200531Z 17005KT 23/20 A2976 RMK A01 T02290203  RH  085%=      5-min Rain = 0
KCR1 200532Z 16005KT 23/20 A2976 RMK A01 T02290203  RH  085%=      5-min Rain = 0
KCR1 200533Z 16004KT 23/20 A2976 RMK A01 T02290203  RH  085%=      5-min Rain = 0
KCR1 200534Z 17004KT 23/20 A2977 RMK A01 T02290203  RH  085%=      5-min Rain = 0
KCR1 200535Z 17004KT 23/20 A2977 RMK A01 T02290203  RH  085%=      5-min Rain = 0
KCR1 200536Z 16004KT 23/20 A2976 RMK A01 T02290203  RH  085%=      5-min Rain = 0
KCR1 200537Z 16004KT 23/20 A2976 RMK A01 T02290203  RH  085%=      5-min Rain = 0
KCR1 200538Z 16004KT 23/20 A2976 RMK A01 T02290203  RH  085%=      5-min Rain = 0
KCR1 200539Z 15004KT 23/20 A2976 RMK A01 T02290204  RH  085%=      5-min Rain = 0
KCR1 200540Z 14004KT 23/20 A2976 RMK A01 T02300204  RH  085%=      5-min Rain = 0
KCR1 200541Z 15003KT 23/20 A2976 RMK A01 T02300204  RH  085%=      5-min Rain = 0
KCR1 200542Z 14003KT 23/20 A2976 RMK A01 T02310204  RH  085%=      5-min Rain = 0
KCR1 200543Z 14003KT 23/20 A2976 RMK A01 T02320204  RH  085%=      5-min Rain = 0
KCR1 200544Z 14003KT 23/20 A2976 RMK A01 T02320204  RH  084%=      5-min Rain = 0
KCR1 200545Z 14003KT 23/20 A2976 RMK A01 T02320204  RH  084%=      5-min Rain = 0
KCR1 200546Z 14004KT 23/20 A2977 RMK A01 T02330204  RH  084%=      5-min Rain = 0
KCR1 200547Z 14004KT 23/20 A2977 RMK A01 T02330204  RH  084%=      5-min Rain = 0
KCR1 200548Z 15003KT 23/20 A2977 RMK A01 T02330204  RH  084%=      5-min Rain = 0
KCR1 200549Z 15004KT 23/20 A2977 RMK A01 T02330204  RH  084%=      5-min Rain = 0
KCR1 200550Z 15004KT 23/20 A2977 RMK A01 T02330204  RH  084%=      5-min Rain = 0
KCR1 200551Z 15004KT 23/20 A2976 RMK A01 T02330204  RH  084%=      5-min Rain = 0
KCR1 200552Z 14004KT 23/20 A2977 RMK A01 T02320204  RH  084%=      5-min Rain = 0
KCR1 200553Z 14004KT 23/20 A2977 RMK A01 T02320204  RH  084%=      5-min Rain = 0
KCR1 200554Z 14004KT 23/20 A2977 RMK A01 T02320204  RH  084%=      5-min Rain = 0
KCR1 200555Z 14004KT 23/20 A2977 RMK A01 T02310204  RH  084%=      5-min Rain = 0
KCR1 200556Z 15004KT 23/20 A2977 RMK A01 T02310204  RH  084%=      5-min Rain = 0
KCR1 200557Z 15004KT 23/20 A2977 RMK A01 T02310204  RH  085%=      5-min Rain = 0
KCR1 200558Z 15004KT 23/20 A2977 RMK A01 T02300204  RH  085%=      5-min Rain = 0
KCR1 200559Z 15004KT 23/20 A2977 RMK A01 T02300204  RH  085%=      5-min Rain = 0
KCR1 200600Z 15004KT 23/20 A2977 RMK A01 T02300204  RH  085%=      5-min Rain = 0
KCR1 200601Z 15004KT 23/20 A2977 RMK A01 T02300204  RH  085%=      5-min Rain = 0
KCR1 200602Z 15004KT 23/20 A2977 RMK A01 T02300204  RH  085%=      5-min Rain = 0
KCR1 200603Z 14004KT 23/20 A2977 RMK A01 T02300204  RH  085%=      5-min Rain = 0
KCR1 200604Z 14004KT 23/20 A2976 RMK A01 T02310204  RH  085%=      5-min Rain = 0
KCR1 200605Z 14004KT 23/20 A2976 RMK A01 T02310204  RH  085%=      5-min Rain = 0
KCR1 200606Z 14004KT 23/20 A2976 RMK A01 T02310204  RH  085%=      5-min Rain = 0
KCR1 200607Z 14004KT 23/20 A2976 RMK A01 T02320204  RH  084%=      5-min Rain = 0
KCR1 200608Z 14004KT 23/20 A2976 RMK A01 T02320204  RH  084%=      5-min Rain = 0
KCR1 200609Z 15004KT 23/20 A2976 RMK A01 T02320204  RH  084%=      5-min Rain = 0
KCR1 200610Z 15004KT 23/20 A2976 RMK A01 T02320204  RH  084%=      5-min Rain = 0
KCR1 200611Z 15004KT 23/20 A2976 RMK A01 T02320204  RH  084%=      5-min Rain = 0
KCR1 200612Z 15004KT 23/20 A2976 RMK A01 T02320203  RH  084%=      5-min Rain = 0
KCR1 200613Z 16004KT 23/20 A2976 RMK A01 T02320204  RH  084%=      5-min Rain = 0
KCR1 200614Z 16004KT 23/20 A2976 RMK A01 T02320203  RH  084%=      5-min Rain = 0
KCR1 200615Z 17004KT 23/20 A2976 RMK A01 T02310203  RH  084%=      5-min Rain = 0
KCR1 200616Z 17004KT 23/20 A2976 RMK A01 T02310203  RH  084%=      5-min Rain = 0
KCR1 200617Z 17004KT 23/20 A2976 RMK A01 T02300202  RH  084%=      5-min Rain = 0
KCR1 200618Z 17004KT 23/20 A2977 RMK A01 T02290202  RH  085%=      5-min Rain = 0
KCR1 200619Z 17004KT 23/20 A2977 RMK A01 T02290202  RH  085%=      5-min Rain = 0
KCR1 200620Z 17004KT 23/20 A2977 RMK A01 T02280202  RH  085%=      5-min Rain = 0
KCR1 200621Z 17004KT 23/20 A2977 RMK A01 T02280202  RH  085%=      5-min Rain = 0
KCR1 200622Z 17004KT 23/20 A2977 RMK A01 T02280202  RH  086%=      5-min Rain = 0
KCR1 200623Z 17004KT 23/20 A2977 RMK A01 T02280203  RH  086%=      5-min Rain = 0
KCR1 200624Z 16004KT 23/20 A2977 RMK A01 T02280203  RH  086%=      5-min Rain = 0
KCR1 200625Z 16005KT 23/20 A2977 RMK A01 T02280203  RH  086%=      5-min Rain = 0
KCR1 200626Z 16005KT 23/20 A2977 RMK A01 T02270203  RH  086%=      5-min Rain = 0
KCR1 200627Z 16005KT 23/20 A2977 RMK A01 T02270203  RH  086%=      5-min Rain = 0
KCR1 200628Z 16005KT 23/20 A2977 RMK A01 T02270203  RH  086%=      5-min Rain = 0
KCR1 200629Z 15005KT 23/20 A2977 RMK A01 T02260202  RH  087%=      5-min Rain = 0
KCR1 200630Z 15005KT 23/20 A2977 RMK A01 T02250202  RH  087%=      5-min Rain = 0
KCR1 200631Z 15005KT 22/20 A2977 RMK A01 T02240202  RH  087%=      5-min Rain = 0
KCR1 200632Z 15005KT 22/20 A2977 RMK A01 T02240202  RH  088%=      5-min Rain = 0
KCR1 200633Z 15005KT 22/20 A2977 RMK A01 T02230202  RH  088%=      5-min Rain = 0
KCR1 200634Z 15006KT 22/20 A2977 RMK A01 T02220202  RH  088%=      5-min Rain = 0
KCR1 200635Z 15006KT 22/20 A2977 RMK A01 T02220202  RH  089%=      5-min Rain = 0
KCR1 200636Z 15006KT 22/20 A2977 RMK A01 T02210202  RH  089%=      5-min Rain = 0
KCR1 200637Z 15006KT 22/20 A2977 RMK A01 T02210202  RH  088%=      5-min Rain = 0
KCR1 200638Z 15006KT 22/20 A2977 RMK A01 T02220202  RH  088%=      5-min Rain = 0
KCR1 200639Z 15006KT 22/20 A2977 RMK A01 T02210201  RH  088%=      5-min Rain = 0
KCR1 200640Z 15006KT 22/20 A2977 RMK A01 T02210201  RH  088%=      5-min Rain = 0
KCR1 200641Z 15006KT 22/20 A2977 RMK A01 T02220201  RH  088%=      5-min Rain = 0
KCR1 200642Z 15006KT 22/20 A2977 RMK A01 T02220201  RH  088%=      5-min Rain = 0
KCR1 200643Z 15006KT 22/20 A2977 RMK A01 T02220201  RH  088%=      5-min Rain = 0
KCR1 200644Z 16006KT 22/20 A2977 RMK A01 T02230201  RH  087%=      5-min Rain = 0
KCR1 200645Z 16006KT 22/20 A2977 RMK A01 T02220200  RH  087%=      5-min Rain = 0
KCR1 200646Z 16006KT 22/20 A2977 RMK A01 T02220200  RH  087%=      5-min Rain = 0
KCR1 200647Z 17006KT 22/20 A2977 RMK A01 T02220200  RH  087%=      5-min Rain = 0
KCR1 200648Z 16007KT 22/20 A2977 RMK A01 T02220200  RH  087%=      5-min Rain = 0
KCR1 200649Z 16006KT 22/20 A2977 RMK A01 T02220200  RH  087%=      5-min Rain = 0
KCR1 200650Z 16006KT 22/20 A2977 RMK A01 T02210199  RH  087%=      5-min Rain = 0
KCR1 200651Z 17006KT 22/20 A2977 RMK A01 T02210199  RH  087%=      5-min Rain = 0
KCR1 200652Z 17006KT 22/20 A2977 RMK A01 T02210198  RH  087%=      5-min Rain = 0
KCR1 200653Z 17006KT 22/20 A2977 RMK A01 T02210199  RH  087%=      5-min Rain = 0
KCR1 200654Z 17006KT 22/20 A2977 RMK A01 T02210198  RH  087%=      5-min Rain = 0
KCR1 200655Z 17006KT 22/20 A2977 RMK A01 T02210199  RH  087%=      5-min Rain = 0
KCR1 200656Z 17007KT 22/20 A2977 RMK A01 T02200198  RH  087%=      5-min Rain = 0
KCR1 200657Z 17006KT 22/20 A2977 RMK A01 T02200198  RH  087%=      5-min Rain = 0
KCR1 200658Z 17006KT 22/20 A2977 RMK A01 T02200198  RH  088%=      5-min Rain = 0
KCR1 200659Z 16006KT 22/20 A2977 RMK A01 T02200198  RH  088%=      5-min Rain = 0
KCR1 200700Z 16007KT 22/20 A2977 RMK A01 T02200198  RH  088%=      5-min Rain = 0
KCR1 200701Z 16006KT 22/20 A2977 RMK A01 T02200198  RH  088%=      5-min Rain = 0
KCR1 200702Z 16006KT 22/20 A2977 RMK A01 T02190198  RH  088%=      5-min Rain = 0
KCR1 200703Z 16006KT 22/20 A2977 RMK A01 T02190198  RH  088%=      5-min Rain = 0
KCR1 200704Z 16005KT 22/20 A2977 RMK A01 T02190198  RH  088%=      5-min Rain = 0
KCR1 200705Z 16005KT 22/20 A2977 RMK A01 T02190198  RH  088%=      5-min Rain = 0
KCR1 200706Z 15005KT 22/20 A2977 RMK A01 T02190198  RH  088%=      5-min Rain = 0
KCR1 200707Z 15005KT 22/20 A2977 RMK A01 T02190198  RH  088%=      5-min Rain = 0
KCR1 200708Z 15004KT 22/20 A2977 RMK A01 T02190197  RH  088%=      5-min Rain = 0
KCR1 200709Z 16005KT 22/20 A2977 RMK A01 T02180197  RH  087%=      5-min Rain = 0
KCR1 200710Z 16005KT 22/20 A2977 RMK A01 T02190197  RH  087%=      5-min Rain = 0
KCR1 200711Z 16006KT 22/20 A2977 RMK A01 T02190197  RH  087%=      5-min Rain = 0
KCR1 200712Z 16005KT 22/20 A2977 RMK A01 T02190197  RH  087%=      5-min Rain = 0
KCR1 200713Z 16006KT 22/20 A2977 RMK A01 T02180197  RH  088%=      5-min Rain = 0
KCR1 200714Z 16005KT 22/20 A2977 RMK A01 T02180197  RH  088%=      5-min Rain = 0
KCR1 200715Z 16005KT 22/20 A2977 RMK A01 T02180197  RH  088%=      5-min Rain = 0
KCR1 200716Z 17005KT 22/20 A2977 RMK A01 T02180197  RH  088%=      5-min Rain = 0
KCR1 200717Z 17005KT 22/20 A2977 RMK A01 T02170197  RH  088%=      5-min Rain = 0
KCR1 200718Z 17004KT 22/20 A2977 RMK A01 T02170197  RH  088%=      5-min Rain = 0
KCR1 200719Z 18005KT 22/20 A2977 RMK A01 T02170197  RH  088%=      5-min Rain = 0
KCR1 200720Z 19005KT 22/20 A2977 RMK A01 T02170197  RH  088%=      5-min Rain = 0
KCR1 200721Z 19006KT 22/20 A2977 RMK A01 T02160196  RH  088%=      5-min Rain = 0
KCR1 200722Z 19006KT 22/20 A2977 RMK A01 T02160196  RH  088%=      5-min Rain = 0
KCR1 200723Z 19005KT 22/20 A2977 RMK A01 T02180196  RH  088%=      5-min Rain = 0
KCR1 200724Z 19005KT 22/20 A2977 RMK A01 T02190197  RH  087%=      5-min Rain = 0
KCR1 200725Z 19004KT 22/20 A2977 RMK A01 T02200197  RH  087%=      5-min Rain = 0
KCR1 200726Z 19004KT 22/20 A2977 RMK A01 T02210197  RH  086%=      5-min Rain = 0
KCR1 200727Z 19004KT 22/20 A2977 RMK A01 T02210197  RH  086%=      5-min Rain = 0
KCR1 200728Z 19005KT 22/20 A2977 RMK A01 T02210197  RH  086%=      5-min Rain = 0
KCR1 200729Z 19005KT 22/20 A2977 RMK A01 T02210196  RH  086%=      5-min Rain = 0
KCR1 200730Z 19005KT 22/20 A2977 RMK A01 T02220197  RH  086%=      5-min Rain = 0
KCR1 200731Z 20005KT 22/20 A2977 RMK A01 T02210197  RH  086%=      5-min Rain = 0
KCR1 200732Z 20004KT 22/20 A2977 RMK A01 T02210196  RH  086%=      5-min Rain = 0
KCR1 200733Z 20003KT 22/20 A2977 RMK A01 T02220197  RH  086%=      5-min Rain = 0
KCR1 200734Z 21004KT 22/20 A2977 RMK A01 T02220197  RH  086%=      5-min Rain = 0
KCR1 200735Z 21003KT 22/20 A2977 RMK A01 T02210196  RH  086%=      5-min Rain = 0
KCR1 200736Z 21003KT 22/20 A2977 RMK A01 T02210196  RH  086%=      5-min Rain = 0
KCR1 200737Z 21003KT 22/20 A2977 RMK A01 T02210196  RH  086%=      5-min Rain = 0
KCR1 200738Z 21003KT 22/20 A2977 RMK A01 T02210196  RH  086%=      5-min Rain = 0
KCR1 200739Z 21003KT 22/20 A2977 RMK A01 T02200196  RH  086%=      5-min Rain = 0
KCR1 200740Z 20003KT 22/20 A2977 RMK A01 T02210196  RH  086%=      5-min Rain = 0
KCR1 200741Z 20003KT 22/20 A2976 RMK A01 T02210196  RH  086%=      5-min Rain = 0
KCR1 200742Z 20003KT 22/20 A2976 RMK A01 T02210196  RH  086%=      5-min Rain = 0
KCR1 200743Z 19003KT 22/20 A2976 RMK A01 T02210196  RH  085%=      5-min Rain = 0
KCR1 200744Z 20003KT 22/20 A2976 RMK A01 T02220196  RH  085%=      5-min Rain = 0
KCR1 200745Z 19003KT 22/20 A2976 RMK A01 T02220196  RH  085%=      5-min Rain = 0
KCR1 200746Z 19003KT 22/20 A2976 RMK A01 T02220196  RH  085%=      5-min Rain = 0
KCR1 200747Z 19003KT 22/20 A2976 RMK A01 T02220196  RH  085%=      5-min Rain = 0
KCR1 200748Z 19003KT 22/20 A2976 RMK A01 T02220196  RH  085%=      5-min Rain = 0
KCR1 200749Z 19003KT 22/20 A2976 RMK A01 T02230196  RH  085%=      5-min Rain = 0
KCR1 200750Z 19003KT 22/20 A2976 RMK A01 T02230195  RH  084%=      5-min Rain = 0
KCR1 200751Z 19004KT 22/20 A2976 RMK A01 T02230196  RH  085%=      5-min Rain = 0
KCR1 200752Z 19004KT 22/20 A2976 RMK A01 T02230196  RH  085%=      5-min Rain = 0
KCR1 200753Z 20004KT 22/20 A2976 RMK A01 T02220195  RH  085%=      5-min Rain = 0
KCR1 200754Z 19005KT 22/20 A2976 RMK A01 T02210195  RH  085%=      5-min Rain = 0
KCR1 200755Z 19006KT 22/20 A2976 RMK A01 T02200195  RH  086%=      5-min Rain = 0
KCR1 200756Z 19006KT 22/20 A2976 RMK A01 T02190195  RH  086%=      5-min Rain = 0
KCR1 200757Z 19006KT 22/20 A2976 RMK A01 T02190195  RH  086%=      5-min Rain = 0
KCR1 200758Z 19006KT 22/20 A2976 RMK A01 T02180195  RH  087%=      5-min Rain = 0
KCR1 200759Z 19007KT 22/20 A2976 RMK A01 T02180195  RH  087%=      5-min Rain = 0
KCR1 200800Z 20006KT 22/20 A2977 RMK A01 T02170195  RH  087%=      5-min Rain = 0
KCR1 200801Z 20007KT 22/20 A2977 RMK A01 T02170196  RH  088%=      5-min Rain = 0
KCR1 200802Z 20006KT 22/20 A2977 RMK A01 T02180197  RH  087%=      5-min Rain = 0
KCR1 200803Z 21005KT 22/20 A2977 RMK A01 T02190196  RH  087%=      5-min Rain = 0
KCR1 200804Z 21005KT 22/20 A2977 RMK A01 T02210197  RH  086%=      5-min Rain = 0
KCR1 200805Z 22004KT 22/20 A2977 RMK A01 T02220197  RH  086%=      5-min Rain = 0
KCR1 200806Z 22005KT 22/20 A2977 RMK A01 T02210197  RH  086%=      5-min Rain = 0
KCR1 200807Z 22005KT 22/20 A2977 RMK A01 T02210197  RH  086%=      5-min Rain = 0
KCR1 200808Z 22005KT 22/20 A2977 RMK A01 T02200197  RH  086%=      5-min Rain = 0
KCR1 200809Z 21005KT 22/20 A2977 RMK A01 T02200197  RH  087%=      5-min Rain = 0
KCR1 200810Z 21005KT 22/20 A2976 RMK A01 T02190196  RH  087%=      5-min Rain = 0
KCR1 200811Z 21005KT 22/20 A2976 RMK A01 T02190197  RH  087%=      5-min Rain = 0
KCR1 200812Z 21006KT 22/20 A2976 RMK A01 T02180197  RH  088%=      5-min Rain = 0
KCR1 200813Z 20006KT 22/20 A2976 RMK A01 T02170196  RH  088%=      5-min Rain = 0
KCR1 200814Z 20006KT 22/20 A2976 RMK A01 T02170197  RH  088%=      5-min Rain = 0
KCR1 200815Z 19006KT 22/20 A2976 RMK A01 T02170197  RH  088%=      5-min Rain = 0
KCR1 200816Z 20006KT 22/20 A2976 RMK A01 T02170197  RH  088%=      5-min Rain = 0
KCR1 200817Z 19006KT 22/20 A2976 RMK A01 T02170197  RH  088%=      5-min Rain = 0
KCR1 200818Z 20005KT 22/20 A2976 RMK A01 T02170197  RH  088%=      5-min Rain = 0
KCR1 200819Z 20004KT 22/20 A2976 RMK A01 T02160196  RH  088%=      5-min Rain = 0
KCR1 200820Z 21004KT 22/20 A2976 RMK A01 T02160196  RH  089%=      5-min Rain = 0
KCR1 200821Z 21004KT 22/20 A2976 RMK A01 T02160197  RH  089%=      5-min Rain = 0
KCR1 200822Z 21004KT 22/20 A2976 RMK A01 T02160197  RH  089%=      5-min Rain = 0
KCR1 200823Z 20002KT 22/20 A2976 RMK A01 T02170197  RH  088%=      5-min Rain = 0
KCR1 200824Z 20003KT 22/20 A2976 RMK A01 T02170197  RH  088%=      5-min Rain = 0
KCR1 200825Z 20004KT 22/20 A2976 RMK A01 T02170196  RH  088%=      5-min Rain = 0
KCR1 200826Z 19003KT 22/20 A2976 RMK A01 T02180197  RH  088%=      5-min Rain = 0
KCR1 200827Z 19004KT 22/20 A2976 RMK A01 T02170196  RH  088%=      5-min Rain = 0
KCR1 200828Z 20005KT 22/20 A2976 RMK A01 T02180197  RH  088%=      5-min Rain = 0
KCR1 200829Z 20005KT 22/20 A2976 RMK A01 T02170196  RH  088%=      5-min Rain = 0
KCR1 200830Z 20005KT 22/20 A2976 RMK A01 T02170197  RH  088%=      5-min Rain = 0
KCR1 200831Z 20004KT 22/20 A2976 RMK A01 T02170197  RH  088%=      5-min Rain = 0
KCR1 200832Z 21004KT 22/20 A2976 RMK A01 T02170197  RH  088%=      5-min Rain = 0
KCR1 200833Z 21004KT 22/20 A2976 RMK A01 T02170197  RH  089%=      5-min Rain = 0
KCR1 200834Z 21004KT 22/20 A2976 RMK A01 T02170197  RH  089%=      5-min Rain = 0
KCR1 200835Z 21004KT 22/20 A2976 RMK A01 T02170197  RH  089%=      5-min Rain = 0
KCR1 200836Z 21004KT 22/20 A2976 RMK A01 T02170197  RH  088%=      5-min Rain = 0
KCR1 200837Z 20003KT 22/20 A2976 RMK A01 T02170197  RH  088%=      5-min Rain = 0
KCR1 200838Z 20004KT 22/20 A2976 RMK A01 T02170197  RH  088%=      5-min Rain = 0
KCR1 200839Z 20004KT 22/20 A2976 RMK A01 T02170197  RH  088%=      5-min Rain = 0
KCR1 200840Z 20003KT 22/20 A2976 RMK A01 T02170197  RH  089%=      5-min Rain = 0
KCR1 200841Z 19003KT 22/20 A2976 RMK A01 T02160197  RH  089%=      5-min Rain = 0
KCR1 200842Z 19003KT 22/20 A2976 RMK A01 T02160197  RH  089%=      5-min Rain = 0
KCR1 200843Z 20003KT 22/20 A2976 RMK A01 T02160196  RH  089%=      5-min Rain = 0
KCR1 200844Z 19003KT 22/20 A2976 RMK A01 T02150196  RH  089%=      5-min Rain = 0
KCR1 200845Z 20003KT 22/20 A2976 RMK A01 T02150197  RH  089%=      5-min Rain = 0
KCR1 200846Z 20003KT 22/20 A2976 RMK A01 T02150197  RH  089%=      5-min Rain = 0
KCR1 200847Z 19002KT 22/20 A2976 RMK A01 T02150197  RH  090%=      5-min Rain = 0
KCR1 200848Z 20003KT 22/20 A2976 RMK A01 T02150197  RH  090%=      5-min Rain = 0
KCR1 200849Z 20003KT 22/20 A2976 RMK A01 T02150197  RH  090%=      5-min Rain = 0
KCR1 200850Z 19003KT 22/20 A2976 RMK A01 T02150197  RH  089%=      5-min Rain = 0
KCR1 200851Z 19003KT 22/20 A2976 RMK A01 T02150197  RH  089%=      5-min Rain = 0
KCR1 200852Z 19003KT 22/20 A2976 RMK A01 T02150197  RH  089%=      5-min Rain = 0
KCR1 200853Z 19003KT 22/20 A2976 RMK A01 T02150197  RH  089%=      5-min Rain = 0
KCR1 200854Z 19003KT 22/20 A2976 RMK A01 T02150197  RH  089%=      5-min Rain = 0
KCR1 200855Z 19003KT 22/20 A2976 RMK A01 T02150197  RH  089%=      5-min Rain = 0
KCR1 200856Z 20003KT 22/20 A2976 RMK A01 T02150197  RH  089%=      5-min Rain = 0
KCR1 200857Z 20003KT 22/20 A2976 RMK A01 T02160198  RH  089%=      5-min Rain = 0
KCR1 200858Z 21002KT 22/20 A2976 RMK A01 T02170198  RH  089%=      5-min Rain = 0
KCR1 200859Z 20002KT 22/20 A2976 RMK A01 T02170198  RH  089%=      5-min Rain = 0
KCR1 200900Z 20002KT 22/20 A2976 RMK A01 T02180198  RH  088%=      5-min Rain = 0
KCR1 200901Z 19001KT 22/20 A2976 RMK A01 T02190198  RH  088%=      5-min Rain = 0
KCR1 200902Z 19001KT 22/20 A2976 RMK A01 T02190198  RH  088%=      5-min Rain = 0
KCR1 200903Z 19001KT 22/20 A2976 RMK A01 T02200198  RH  088%=      5-min Rain = 0
KCR1 200904Z 18001KT 22/20 A2976 RMK A01 T02200198  RH  087%=      5-min Rain = 0
KCR1 200905Z 18001KT 22/20 A2976 RMK A01 T02200198  RH  087%=      5-min Rain = 0
KCR1 200906Z 17001KT 22/20 A2976 RMK A01 T02200198  RH  087%=      5-min Rain = 0
KCR1 200907Z 17002KT 22/20 A2976 RMK A01 T02200198  RH  088%=      5-min Rain = 0
KCR1 200908Z 16002KT 22/20 A2976 RMK A01 T02200198  RH  088%=      5-min Rain = 0
KCR1 200909Z 16002KT 22/20 A2976 RMK A01 T02200198  RH  088%=      5-min Rain = 0
KCR1 200910Z 16002KT 22/20 A2976 RMK A01 T02200198  RH  088%=      5-min Rain = 0
KCR1 200911Z 16002KT 22/20 A2976 RMK A01 T02200198  RH  087%=      5-min Rain = 0
KCR1 200912Z 15002KT 22/20 A2976 RMK A01 T02200198  RH  088%=      5-min Rain = 0
KCR1 200913Z 15002KT 22/20 A2976 RMK A01 T02200199  RH  088%=      5-min Rain = 0
KCR1 200914Z 15002KT 22/20 A2976 RMK A01 T02200199  RH  088%=      5-min Rain = 0
KCR1 200915Z 15003KT 22/20 A2976 RMK A01 T02200199  RH  088%=      5-min Rain = 0
KCR1 200916Z 15003KT 22/20 A2976 RMK A01 T02200198  RH  087%=      5-min Rain = 0
KCR1 200917Z 15003KT 22/20 A2976 RMK A01 T02210198  RH  087%=      5-min Rain = 0
KCR1 200918Z 15003KT 22/20 A2976 RMK A01 T02210198  RH  087%=      5-min Rain = 0
KCR1 200919Z 14002KT 22/20 A2976 RMK A01 T02210198  RH  087%=      5-min Rain = 0
KCR1 200920Z 15002KT 22/20 A2976 RMK A01 T02210198  RH  087%=      5-min Rain = 0
KCR1 200921Z 16003KT 22/20 A2976 RMK A01 T02200197  RH  087%=      5-min Rain = 0
KCR1 200922Z 16003KT 22/20 A2976 RMK A01 T02190197  RH  087%=      5-min Rain = 0
KCR1 200923Z 16003KT 22/20 A2976 RMK A01 T02180198  RH  088%=      5-min Rain = 0
KCR1 200924Z 16003KT 22/20 A2976 RMK A01 T02180198  RH  088%=      5-min Rain = 0
KCR1 200925Z 16003KT 22/20 A2976 RMK A01 T02170198  RH  089%=      5-min Rain = 0
KCR1 200926Z 16003KT 22/20 A2976 RMK A01 T02170197  RH  089%=      5-min Rain = 0
KCR1 200927Z 16002KT 22/20 A2976 RMK A01 T02170198  RH  089%=      5-min Rain = 0
KCR1 200928Z 16003KT 22/20 A2976 RMK A01 T02170197  RH  089%=      5-min Rain = 0
KCR1 200929Z 17003KT 22/20 A2976 RMK A01 T02160197  RH  089%=      5-min Rain = 0
KCR1 200930Z 16002KT 22/20 A2976 RMK A01 T02160197  RH  089%=      5-min Rain = 0
KCR1 200931Z 16003KT 22/20 A2976 RMK A01 T02160197  RH  089%=      5-min Rain = 0
KCR1 200932Z 16003KT 22/20 A2976 RMK A01 T02160197  RH  089%=      5-min Rain = 0
KCR1 200933Z 15002KT 22/20 A2976 RMK A01 T02160197  RH  089%=      5-min Rain = 0
KCR1 200934Z 15002KT 22/20 A2976 RMK A01 T02150197  RH  089%=      5-min Rain = 0
KCR1 200935Z 14002KT 22/20 A2976 RMK A01 T02160197  RH  089%=      5-min Rain = 0
KCR1 200936Z 13002KT 22/20 A2976 RMK A01 T02150197  RH  089%=      5-min Rain = 0
KCR1 200937Z 14003KT 22/20 A2976 RMK A01 T02150197  RH  089%=      5-min Rain = 0
KCR1 200938Z 14003KT 22/20 A2976 RMK A01 T02150197  RH  090%=      5-min Rain = 0
KCR1 200939Z 14003KT 22/20 A2976 RMK A01 T02150198  RH  090%=      5-min Rain = 0
KCR1 200940Z 16003KT 22/20 A2976 RMK A01 T02150198  RH  090%=      5-min Rain = 0
KCR1 200941Z 16003KT 22/20 A2976 RMK A01 T02150198  RH  090%=      5-min Rain = 0
KCR1 200942Z 17003KT 22/20 A2976 RMK A01 T02160197  RH  089%=      5-min Rain = 0
KCR1 200943Z 17003KT 22/20 A2976 RMK A01 T02160197  RH  089%=      5-min Rain = 0
KCR1 200944Z 16002KT 22/20 A2976 RMK A01 T02170198  RH  089%=      5-min Rain = 0
KCR1 200945Z 16002KT 22/20 A2976 RMK A01 T02180198  RH  088%=      5-min Rain = 0
KCR1 200946Z 17002KT 22/20 A2976 RMK A01 T02180198  RH  088%=      5-min Rain = 0
KCR1 200947Z 17003KT 22/20 A2976 RMK A01 T02180198  RH  088%=      5-min Rain = 0
KCR1 200948Z 18003KT 22/20 A2976 RMK A01 T02190198  RH  088%=      5-min Rain = 0
KCR1 200949Z 18003KT 22/20 A2976 RMK A01 T02200198  RH  087%=      5-min Rain = 0
KCR1 200950Z 18004KT 22/20 A2976 RMK A01 T02200197  RH  087%=      5-min Rain = 0
KCR1 200951Z 19004KT 22/20 A2976 RMK A01 T02200197  RH  087%=      5-min Rain = 0
KCR1 200952Z 19004KT 22/20 A2976 RMK A01 T02200197  RH  087%=      5-min Rain = 0
KCR1 200953Z 20004KT 22/20 A2976 RMK A01 T02190197  RH  087%=      5-min Rain = 0
KCR1 200954Z 20004KT 22/20 A2976 RMK A01 T02190197  RH  087%=      5-min Rain = 0
KCR1 200955Z 19004KT 22/20 A2976 RMK A01 T02180196  RH  088%=      5-min Rain = 0
KCR1 200956Z 19004KT 22/20 A2976 RMK A01 T02180197  RH  088%=      5-min Rain = 0
KCR1 200957Z 19004KT 22/20 A2976 RMK A01 T02170197  RH  088%=      5-min Rain = 0
KCR1 200958Z 18004KT 22/20 A2976 RMK A01 T02170197  RH  088%=      5-min Rain = 0
KCR1 200959Z 18004KT 22/20 A2976 RMK A01 T02170197  RH  088%=      5-min Rain = 0
KCR1 201000Z 19004KT 22/20 A2976 RMK A01 T02180197  RH  088%=      5-min Rain = 0
KCR1 201001Z 19004KT 22/20 A2976 RMK A01 T02170197  RH  088%=      5-min Rain = 0
KCR1 201002Z 19004KT 22/20 A2976 RMK A01 T02180197  RH  088%=      5-min Rain = 0
KCR1 201003Z 18004KT 22/20 A2976 RMK A01 T02180197  RH  088%=      5-min Rain = 0
KCR1 201004Z 18003KT 22/20 A2976 RMK A01 T02180197  RH  088%=      5-min Rain = 0
KCR1 201005Z 18003KT 22/20 A2976 RMK A01 T02190197  RH  088%=      5-min Rain = 0
KCR1 201006Z 18003KT 22/20 A2976 RMK A01 T02190198  RH  087%=      5-min Rain = 0
KCR1 201007Z 18003KT 22/20 A2976 RMK A01 T02200198  RH  087%=      5-min Rain = 0
KCR1 201008Z 17003KT 22/20 A2976 RMK A01 T02200198  RH  087%=      5-min Rain = 0
KCR1 201009Z 18002KT 22/20 A2976 RMK A01 T02200197  RH  087%=      5-min Rain = 0
KCR1 201010Z 19003KT 22/20 A2976 RMK A01 T02200197  RH  087%=      5-min Rain = 0
KCR1 201011Z 19003KT 22/20 A2976 RMK A01 T02200197  RH  087%=      5-min Rain = 0
KCR1 201012Z 20002KT 22/20 A2976 RMK A01 T02200197  RH  087%=      5-min Rain = 0
KCR1 201013Z 20001KT 22/20 A2976 RMK A01 T02200197  RH  087%=      5-min Rain = 0
KCR1 201014Z 20001KT 22/20 A2976 RMK A01 T02200197  RH  087%=      5-min Rain = 0
KCR1 201015Z 19001KT 22/20 A2976 RMK A01 T02200198  RH  087%=      5-min Rain = 0
KCR1 201016Z 19001KT 22/20 A2976 RMK A01 T02200198  RH  087%=      5-min Rain = 0
KCR1 201017Z 17001KT 22/20 A2976 RMK A01 T02200198  RH  087%=      5-min Rain = 0
KCR1 201018Z 16001KT 22/20 A2976 RMK A01 T02200198  RH  087%=      5-min Rain = 0
KCR1 201019Z 16001KT 22/20 A2976 RMK A01 T02200198  RH  087%=      5-min Rain = 0
KCR1 201020Z 15001KT 22/20 A2976 RMK A01 T02200197  RH  087%=      5-min Rain = 0
KCR1 201021Z 14002KT 22/20 A2976 RMK A01 T02200197  RH  087%=      5-min Rain = 0
KCR1 201022Z 13002KT 22/20 A2976 RMK A01 T02200198  RH  087%=      5-min Rain = 0
KCR1 201023Z 12002KT 22/20 A2976 RMK A01 T02190197  RH  087%=      5-min Rain = 0
KCR1 201024Z 12003KT 22/20 A2976 RMK A01 T02190197  RH  087%=      5-min Rain = 0
KCR1 201025Z 11003KT 22/20 A2976 RMK A01 T02180197  RH  087%=      5-min Rain = 0
KCR1 201026Z 09003KT 22/20 A2976 RMK A01 T02170195  RH  087%=      5-min Rain = 0
KCR1 201027Z 09003KT 21/19 A2976 RMK A01 T02140194  RH  088%=      5-min Rain = 0
KCR1 201028Z 09003KT 21/19 A2976 RMK A01 T02120194  RH  090%=      5-min Rain = 0
KCR1 201029Z 09003KT 21/19 A2976 RMK A01 T02100194  RH  091%=      5-min Rain = 0
KCR1 201030Z 11003KT 21/19 A2976 RMK A01 T02090194  RH  091%=      5-min Rain = 0
KCR1 201031Z 12003KT 21/20 A2976 RMK A01 T02080195  RH  092%=      5-min Rain = 0
KCR1 201032Z 13003KT 21/20 A2976 RMK A01 T02080195  RH  092%=      5-min Rain = 0
KCR1 201033Z 12003KT 21/20 A2976 RMK A01 T02080196  RH  092%=      5-min Rain = 0
KCR1 201034Z 12003KT 21/20 A2976 RMK A01 T02080196  RH  093%=      5-min Rain = 0
KCR1 201035Z 12004KT 21/20 A2976 RMK A01 T02080196  RH  093%=      5-min Rain = 0
KCR1 201036Z 11003KT 21/20 A2976 RMK A01 T02080196  RH  093%=      5-min Rain = 0
KCR1 201037Z 11004KT 21/20 A2976 RMK A01 T02080196  RH  093%=      5-min Rain = 0
KCR1 201038Z 10003KT 21/20 A2976 RMK A01 T02080196  RH  093%=      5-min Rain = 0
KCR1 201039Z 10003KT 21/20 A2976 RMK A01 T02080196  RH  093%=      5-min Rain = 0
KCR1 201040Z 09003KT 21/20 A2976 RMK A01 T02080196  RH  093%=      5-min Rain = 0
KCR1 201041Z 09003KT 21/20 A2976 RMK A01 T02080195  RH  093%=      5-min Rain = 0
KCR1 201042Z 09003KT 21/20 A2976 RMK A01 T02080195  RH  092%=      5-min Rain = 0
KCR1 201043Z 09002KT 21/20 A2976 RMK A01 T02080195  RH  092%=      5-min Rain = 0
KCR1 201044Z 09002KT 21/20 A2976 RMK A01 T02080195  RH  092%=      5-min Rain = 0
KCR1 201045Z 09002KT 21/20 A2976 RMK A01 T02080195  RH  092%=      5-min Rain = 0
KCR1 201046Z 09002KT 21/20 A2976 RMK A01 T02080195  RH  092%=      5-min Rain = 0
KCR1 201047Z 08003KT 21/20 A2976 RMK A01 T02080196  RH  092%=      5-min Rain = 0
KCR1 201048Z 08003KT 21/20 A2976 RMK A01 T02080195  RH  092%=      5-min Rain = 0
KCR1 201049Z 07003KT 21/20 A2976 RMK A01 T02080195  RH  092%=      5-min Rain = 0
KCR1 201050Z 07003KT 21/20 A2976 RMK A01 T02070195  RH  093%=      5-min Rain = 0
KCR1 201051Z 07003KT 21/20 A2976 RMK A01 T02070195  RH  093%=      5-min Rain = 0
KCR1 201052Z 07004KT 21/19 A2976 RMK A01 T02060194  RH  093%=      5-min Rain = 0
KCR1 201053Z 08004KT 21/19 A2976 RMK A01 T02060194  RH  093%=      5-min Rain = 0
KCR1 201054Z 08004KT 21/19 A2976 RMK A01 T02050194  RH  093%=      5-min Rain = 0
KCR1 201055Z 08005KT 21/19 A2976 RMK A01 T02050194  RH  094%=      5-min Rain = 0
KCR1 201056Z 08005KT 21/20 A2976 RMK A01 T02050195  RH  094%=      5-min Rain = 0
KCR1 201057Z 08006KT 21/20 A2976 RMK A01 T02050195  RH  094%=      5-min Rain = 0
KCR1 201058Z 09006KT 21/20 A2976 RMK A01 T02050195  RH  094%=      5-min Rain = 0
KCR1 201059Z 09006KT 21/20 A2976 RMK A01 T02050195  RH  094%=      5-min Rain = 0
KCR1 201100Z 09006KT 21/20 A2976 RMK A01 T02050195  RH  094%=      5-min Rain = 0
KCR1 201101Z 09006KT 21/20 A2976 RMK A01 T02050195  RH  094%=      5-min Rain = 0
KCR1 201102Z 09006KT 21/19 A2976 RMK A01 T02050194  RH  094%=      5-min Rain = 0
KCR1 201103Z 09006KT 21/19 A2976 RMK A01 T02050194  RH  094%=      5-min Rain = 0
KCR1 201104Z 09006KT 21/20 A2976 RMK A01 T02050195  RH  094%=      5-min Rain = 0
KCR1 201105Z 09006KT 21/20 A2976 RMK A01 T02050195  RH  094%=      5-min Rain = 0
KCR1 201106Z 09006KT 21/20 A2976 RMK A01 T02050195  RH  094%=      5-min Rain = 0
KCR1 201107Z 09006KT 21/20 A2976 RMK A01 T02050195  RH  094%=      5-min Rain = 0
KCR1 201108Z 10006KT 21/20 A2976 RMK A01 T02060195  RH  094%=      5-min Rain = 0
KCR1 201109Z 09006KT 21/20 A2976 RMK A01 T02060196  RH  094%=      5-min Rain = 0
KCR1 201110Z 10006KT 21/20 A2976 RMK A01 T02060196  RH  094%=      5-min Rain = 0
KCR1 201111Z 09006KT 21/20 A2976 RMK A01 T02070197  RH  094%=      5-min Rain = 0
KCR1 201112Z 09007KT 21/20 A2976 RMK A01 T02080197  RH  094%=      5-min Rain = 0
KCR1 201113Z 10006KT 21/20 A2976 RMK A01 T02080197  RH  093%=      5-min Rain = 0
KCR1 201114Z 10006KT 21/20 A2976 RMK A01 T02080197  RH  093%=      5-min Rain = 0
KCR1 201115Z 10006KT 21/20 A2976 RMK A01 T02080197  RH  093%=      5-min Rain = 0
KCR1 201116Z 10006KT 21/20 A2976 RMK A01 T02090197  RH  093%=      5-min Rain = 0
KCR1 201117Z 11005KT 21/20 A2976 RMK A01 T02090197  RH  093%=      5-min Rain = 0
KCR1 201118Z 11005KT 21/20 A2976 RMK A01 T02090197  RH  093%=      5-min Rain = 0
KCR1 201119Z 11005KT 21/20 A2976 RMK A01 T02090197  RH  093%=      5-min Rain = 0
KCR1 201120Z 11005KT 21/20 A2976 RMK A01 T02090197  RH  093%=      5-min Rain = 0
KCR1 201121Z 11005KT 21/20 A2976 RMK A01 T02090196  RH  093%=      5-min Rain = 0
KCR1 201122Z 11005KT 21/20 A2976 RMK A01 T02080196  RH  093%=      5-min Rain = 0
KCR1 201123Z 12005KT 21/20 A2976 RMK A01 T02080196  RH  093%=      5-min Rain = 0
KCR1 201124Z 12006KT 21/20 A2976 RMK A01 T02070195  RH  093%=      5-min Rain = 0
KCR1 201125Z 12005KT 21/20 A2976 RMK A01 T02070196  RH  093%=      5-min Rain = 0
KCR1 201126Z 12005KT 21/20 A2976 RMK A01 T02070196  RH  093%=      5-min Rain = 0
KCR1 201127Z 11006KT 21/20 A2976 RMK A01 T02060195  RH  093%=      5-min Rain = 0
KCR1 201128Z 11006KT 21/20 A2976 RMK A01 T02060196  RH  094%=      5-min Rain = 0
KCR1 201129Z 11005KT 21/20 A2976 RMK A01 T02060196  RH  094%=      5-min Rain = 0
KCR1 201130Z 10005KT 21/20 A2976 RMK A01 T02070197  RH  094%=      5-min Rain = 0
KCR1 201131Z 10005KT 21/20 A2976 RMK A01 T02070197  RH  094%=      5-min Rain = 0
KCR1 201132Z 11005KT 21/20 A2976 RMK A01 T02070197  RH  094%=      5-min Rain = 0
KCR1 201133Z 11005KT 21/20 A2976 RMK A01 T02080197  RH  094%=      5-min Rain = 0
KCR1 201134Z 11006KT 21/20 A2976 RMK A01 T02080196  RH  093%=      5-min Rain = 0
KCR1 201135Z 10006KT 21/20 A2976 RMK A01 T02080197  RH  093%=      5-min Rain = 0
KCR1 201136Z 11006KT 21/20 A2976 RMK A01 T02080196  RH  093%=      5-min Rain = 0
KCR1 201137Z 11006KT 21/20 A2976 RMK A01 T02080196  RH  093%=      5-min Rain = 0
KCR1 201138Z 11005KT 21/20 A2976 RMK A01 T02080196  RH  093%=      5-min Rain = 0
KCR1 201139Z 11006KT 21/20 A2976 RMK A01 T02080196  RH  093%=      5-min Rain = 0
KCR1 201140Z 11006KT 21/20 A2976 RMK A01 T02080196  RH  093%=      5-min Rain = 0
KCR1 201141Z 12006KT 21/20 A2976 RMK A01 T02080196  RH  093%=      5-min Rain = 0
KCR1 201142Z 12005KT 21/20 A2976 RMK A01 T02080196  RH  093%=      5-min Rain = 0
KCR1 201143Z 11006KT 21/20 A2976 RMK A01 T02080196  RH  093%=      5-min Rain = 0
KCR1 201144Z 11006KT 21/20 A2976 RMK A01 T02080196  RH  093%=      5-min Rain = 0
KCR1 201145Z 11006KT 21/20 A2976 RMK A01 T02080196  RH  093%=      5-min Rain = 0
KCR1 201146Z 12005KT 21/20 A2976 RMK A01 T02090196  RH  093%=      5-min Rain = 0
KCR1 201147Z 12005KT 21/20 A2976 RMK A01 T02090196  RH  092%=      5-min Rain = 0
KCR1 201148Z 12005KT 21/20 A2976 RMK A01 T02090196  RH  092%=      5-min Rain = 0
KCR1 201149Z 12005KT 21/20 A2976 RMK A01 T02090196  RH  092%=      5-min Rain = 0
KCR1 201150Z 12005KT 21/20 A2976 RMK A01 T02090195  RH  092%=      5-min Rain = 0
KCR1 201151Z 12005KT 21/20 A2976 RMK A01 T02090196  RH  092%=      5-min Rain = 0
KCR1 201152Z 12005KT 21/20 A2976 RMK A01 T02090196  RH  092%=      5-min Rain = 0
KCR1 201153Z 12005KT 21/20 A2976 RMK A01 T02100196  RH  092%=      5-min Rain = 0
KCR1 201154Z 12005KT 21/20 A2976 RMK A01 T02100196  RH  092%=      5-min Rain = 0
KCR1 201155Z 12005KT 21/20 A2976 RMK A01 T02100196  RH  091%=      5-min Rain = 0
KCR1 201156Z 12005KT 21/20 A2976 RMK A01 T02100196  RH  091%=      5-min Rain = 0
KCR1 201157Z 12004KT 21/20 A2976 RMK A01 T02110196  RH  091%=      5-min Rain = 0
KCR1 201158Z 12004KT 21/20 A2976 RMK A01 T02110196  RH  091%=      5-min Rain = 0
KCR1 201159Z 12005KT 21/20 A2976 RMK A01 T02110196  RH  091%=      5-min Rain = 0
KCR1 201200Z 11004KT 21/20 A2976 RMK A01 T02120197  RH  091%=      5-min Rain = 0
KCR1 201201Z 11005KT 21/20 A2976 RMK A01 T02120197  RH  091%=      5-min Rain = 0
KCR1 201202Z 11005KT 21/20 A2976 RMK A01 T02120197  RH  091%=      5-min Rain = 0
KCR1 201203Z 12006KT 21/20 A2976 RMK A01 T02130197  RH  091%=      5-min Rain = 0
KCR1 201204Z 12006KT 21/20 A2976 RMK A01 T02130197  RH  090%=      5-min Rain = 0
KCR1 201205Z 12005KT 21/20 A2976 RMK A01 T02140197  RH  090%=      5-min Rain = 0
KCR1 201206Z 12006KT 21/20 A2976 RMK A01 T02140198  RH  090%=      5-min Rain = 0
KCR1 201207Z 12005KT 21/20 A2976 RMK A01 T02140198  RH  090%=      5-min Rain = 0
KCR1 201208Z 12005KT 21/20 A2976 RMK A01 T02140198  RH  090%=      5-min Rain = 0
KCR1 201209Z 13005KT 21/20 A2976 RMK A01 T02140198  RH  090%=      5-min Rain = 0
KCR1 201210Z 13005KT 21/20 A2976 RMK A01 T02140198  RH  091%=      5-min Rain = 0
KCR1 201211Z 13005KT 21/20 A2976 RMK A01 T02140198  RH  090%=      5-min Rain = 0
KCR1 201212Z 13006KT 22/20 A2976 RMK A01 T02150198  RH  090%=      5-min Rain = 0
KCR1 201213Z 13006KT 22/20 A2976 RMK A01 T02150198  RH  090%=      5-min Rain = 0
KCR1 201214Z 13006KT 22/20 A2976 RMK A01 T02150198  RH  090%=      5-min Rain = 0
KCR1 201215Z 13006KT 22/20 A2976 RMK A01 T02150198  RH  090%=      5-min Rain = 0
KCR1 201216Z 13007KT 22/20 A2976 RMK A01 T02160198  RH  089%=      5-min Rain = 0
KCR1 201217Z 13007KT 22/20 A2976 RMK A01 T02160197  RH  089%=      5-min Rain = 0
KCR1 201218Z 13007KT 22/20 A2976 RMK A01 T02160197  RH  089%=      5-min Rain = 0
KCR1 201219Z 13006KT 22/20 A2976 RMK A01 T02160197  RH  089%=      5-min Rain = 0
KCR1 201220Z 13006KT 22/20 A2976 RMK A01 T02170197  RH  089%=      5-min Rain = 0
KCR1 201221Z 13006KT 22/20 A2976 RMK A01 T02170197  RH  088%=      5-min Rain = 0
KCR1 201222Z 13006KT 22/20 A2976 RMK A01 T02180198  RH  088%=      5-min Rain = 0
KCR1 201223Z 13007KT 22/20 A2976 RMK A01 T02180196  RH  088%=      5-min Rain = 0
KCR1 201224Z 12006KT 22/20 A2976 RMK A01 T02180197  RH  088%=      5-min Rain = 0
KCR1 201225Z 12007KT 22/20 A2976 RMK A01 T02180196  RH  087%=      5-min Rain = 0
KCR1 201226Z 12006KT 22/20 A2976 RMK A01 T02190196  RH  087%=      5-min Rain = 0
KCR1 201227Z 12006KT 22/20 A2976 RMK A01 T02190195  RH  086%=      5-min Rain = 0
KCR1 201228Z 12006KT 22/20 A2976 RMK A01 T02190196  RH  087%=      5-min Rain = 0
KCR1 201229Z 12006KT 22/20 A2976 RMK A01 T02200196  RH  087%=      5-min Rain = 0
KCR1 201230Z 12007KT 22/20 A2976 RMK A01 T02200195  RH  086%=      5-min Rain = 0
KCR1 201231Z 12007KT 22/20 A2976 RMK A01 T02200195  RH  086%=      5-min Rain = 0
KCR1 201232Z 12006KT 22/20 A2976 RMK A01 T02210195  RH  085%=      5-min Rain = 0
KCR1 201233Z 12006KT 22/20 A2976 RMK A01 T02210196  RH  085%=      5-min Rain = 0
KCR1 201234Z 13006KT 22/20 A2976 RMK A01 T02220196  RH  085%=      5-min Rain = 0
KCR1 201235Z 12006KT 22/20 A2976 RMK A01 T02220196  RH  085%=      5-min Rain = 0
KCR1 201236Z 13006KT 22/20 A2976 RMK A01 T02230195  RH  084%=      5-min Rain = 0
KCR1 201237Z 12005KT 22/19 A2976 RMK A01 T02230194  RH  084%=      5-min Rain = 0
KCR1 201238Z 13006KT 22/20 A2976 RMK A01 T02240195  RH  084%=      5-min Rain = 0
KCR1 201239Z 12005KT 22/19 A2976 RMK A01 T02240194  RH  083%=      5-min Rain = 0
KCR1 201240Z 12004KT 23/19 A2976 RMK A01 T02250194  RH  083%=      5-min Rain = 0
KCR1 201241Z 12005KT 23/20 A2976 RMK A01 T02250195  RH  083%=      5-min Rain = 0
KCR1 201242Z 12005KT 23/20 A2976 RMK A01 T02260195  RH  082%=      5-min Rain = 0
KCR1 201243Z 13006KT 23/20 A2976 RMK A01 T02270195  RH  082%=      5-min Rain = 0
KCR1 201244Z 13005KT 23/19 A2976 RMK A01 T02270194  RH  081%=      5-min Rain = 0
KCR1 201245Z 12006KT 23/19 A2976 RMK A01 T02280194  RH  081%=      5-min Rain = 0
KCR1 201246Z 12006KT 23/19 A2976 RMK A01 T02280193  RH  081%=      5-min Rain = 0
KCR1 201247Z 12006KT 23/19 A2976 RMK A01 T02290194  RH  081%=      5-min Rain = 0
KCR1 201248Z 12006KT 23/19 A2976 RMK A01 T02290193  RH  080%=      5-min Rain = 0
KCR1 201249Z 13006KT 23/19 A2976 RMK A01 T02300194  RH  080%=      5-min Rain = 0
KCR1 201250Z 13005KT 23/20 A2976 RMK A01 T02300195  RH  080%=      5-min Rain = 0
KCR1 201251Z 12004KT 23/20 A2976 RMK A01 T02310195  RH  080%=      5-min Rain = 0
KCR1 201252Z 12004KT 23/19 A2976 RMK A01 T02320193  RH  079%=      5-min Rain = 0
KCR1 201253Z 12004KT 23/20 A2976 RMK A01 T02320196  RH  080%=      5-min Rain = 0
KCR1 201254Z 11005KT 23/20 A2976 RMK A01 T02330195  RH  079%=      5-min Rain = 0
KCR1 201255Z 12005KT 23/19 A2976 RMK A01 T02340194  RH  078%=      5-min Rain = 0
KCR1 201256Z 13006KT 23/19 A2976 RMK A01 T02340193  RH  078%=      5-min Rain = 0
KCR1 201257Z 12007KT 23/19 A2976 RMK A01 T02340192  RH  077%=      5-min Rain = 0
KCR1 201258Z 12007KT 23/19 A2976 RMK A01 T02340190  RH  076%=      5-min Rain = 0
KCR1 201259Z 12007KT 24/19 A2976 RMK A01 T02350192  RH  077%=      5-min Rain = 0
KCR1 201300Z 12005KT 23/19 A2976 RMK A01 T02340191  RH  077%=      5-min Rain = 0
KCR1 201301Z 13005KT 24/19 A2976 RMK A01 T02350193  RH  077%=      5-min Rain = 0
KCR1 201302Z 13006KT 24/19 A2976 RMK A01 T02360193  RH  077%=      5-min Rain = 0
KCR1 201303Z 13005KT 24/19 A2977 RMK A01 T02360193  RH  077%=      5-min Rain = 0
KCR1 201304Z 14005KT 24/19 A2977 RMK A01 T02370194  RH  077%=      5-min Rain = 0
KCR1 201305Z 13005KT 24/20 A2977 RMK A01 T02380195  RH  077%=      5-min Rain = 0
KCR1 201306Z 15006KT 24/19 A2976 RMK A01 T02390194  RH  076%=      5-min Rain = 0
KCR1 201307Z 15006KT 24/19 A2976 RMK A01 T02400194  RH  076%=      5-min Rain = 0
KCR1 201308Z 14006KT 24/20 A2976 RMK A01 T02400195  RH  076%=      5-min Rain = 0
KCR1 201309Z 15006KT 24/20 A2976 RMK A01 T02410195  RH  076%=      5-min Rain = 0
KCR1 201310Z 15007KT 24/20 A2976 RMK A01 T02410195  RH  076%=      5-min Rain = 0
KCR1 201311Z 14008KT 24/20 A2976 RMK A01 T02420195  RH  075%=      5-min Rain = 0
KCR1 201312Z 15006KT 24/20 A2976 RMK A01 T02420196  RH  075%=      5-min Rain = 0
KCR1 201313Z 14006KT 24/20 A2976 RMK A01 T02430197  RH  076%=      5-min Rain = 0
KCR1 201314Z 15008KT 24/20 A2976 RMK A01 T02430195  RH  075%=      5-min Rain = 0
KCR1 201315Z 15007KT 24/19 A2976 RMK A01 T02430194  RH  074%=      5-min Rain = 0
KCR1 201316Z 15006KT 24/20 A2976 RMK A01 T02430196  RH  075%=      5-min Rain = 0
KCR1 201317Z 14008KT 24/20 A2976 RMK A01 T02440196  RH  075%=      5-min Rain = 0
KCR1 201318Z 15008KT 24/20 A2976 RMK A01 T02440196  RH  075%=      5-min Rain = 0
KCR1 201319Z 14007KT 24/20 A2976 RMK A01 T02440195  RH  074%=      5-min Rain = 0
KCR1 201320Z 15008KT 24/20 A2976 RMK A01 T02440197  RH  075%=      5-min Rain = 0
KCR1 201321Z 15009KT 25/20 A2976 RMK A01 T02450196  RH  074%=      5-min Rain = 0
KCR1 201322Z 14007KT 25/20 A2976 RMK A01 T02450196  RH  074%=      5-min Rain = 0
KCR1 201323Z 14009KT 25/20 A2976 RMK A01 T02450197  RH  074%=      5-min Rain = 0
KCR1 201324Z 15008KT 25/20 A2976 RMK A01 T02460197  RH  074%=      5-min Rain = 0
KCR1 201325Z 14008KT 25/20 A2976 RMK A01 T02470199  RH  074%=      5-min Rain = 0
KCR1 201326Z 15008KT 25/20 A2976 RMK A01 T02480198  RH  074%=      5-min Rain = 0
KCR1 201327Z 14007KT 25/20 A2976 RMK A01 T02490199  RH  074%=      5-min Rain = 0
KCR1 201328Z 14008KT 25/20 A2976 RMK A01 T02500199  RH  073%=      5-min Rain = 0
KCR1 201329Z 15008KT 25/20 A2976 RMK A01 T02490199  RH  074%=      5-min Rain = 0
KCR1 201330Z 15007KT 25/20 A2976 RMK A01 T02500200  RH  074%=      5-min Rain = 0
KCR1 201331Z 15007KT 25/20 A2976 RMK A01 T02510199  RH  073%=      5-min Rain = 0
KCR1 201332Z 15008KT 25/20 A2976 RMK A01 T02510199  RH  073%=      5-min Rain = 0
KCR1 201333Z 15008KT 25/20 A2976 RMK A01 T02510198  RH  072%=      5-min Rain = 0
KCR1 201334Z 16008KT 25/20 A2976 RMK A01 T02500197  RH  072%=      5-min Rain = 0
KCR1 201335Z 15007KT 25/20 A2976 RMK A01 T02500198  RH  073%=      5-min Rain = 0
KCR1 201336Z 17007KT 25/20 A2976 RMK A01 T02500199  RH  073%=      5-min Rain = 0
KCR1 201337Z 16006KT 25/20 A2976 RMK A01 T02510199  RH  073%=      5-min Rain = 0
KCR1 201338Z 16005KT 25/20 A2976 RMK A01 T02520200  RH  073%=      5-min Rain = 0
KCR1 201339Z 15007KT 25/20 A2976 RMK A01 T02530201  RH  073%=      5-min Rain = 0
KCR1 201340Z 16007KT 25/20 A2976 RMK A01 T02540201  RH  072%=      5-min Rain = 0
KCR1 201341Z 16008KT 26/20 A2976 RMK A01 T02550200  RH  071%=      5-min Rain = 0
KCR1 201342Z 17007KT 26/20 A2976 RMK A01 T02550200  RH  071%=      5-min Rain = 0
KCR1 201343Z 16006KT 26/20 A2976 RMK A01 T02550201  RH  072%=      5-min Rain = 0
KCR1 201344Z 16007KT 26/20 A2976 RMK A01 T02560202  RH  072%=      5-min Rain = 0
KCR1 201345Z 15007KT 26/20 A2976 RMK A01 T02570203  RH  072%=      5-min Rain = 0
KCR1 201346Z 16008KT 26/20 A2976 RMK A01 T02580203  RH  072%=      5-min Rain = 0
KCR1 201347Z 16010KT 26/20 A2976 RMK A01 T02580201  RH  071%=      5-min Rain = 0
KCR1 201348Z 16009KT 26/20 A2976 RMK A01 T02580203  RH  071%=      5-min Rain = 0
KCR1 201349Z 16009KT 26/20 A2976 RMK A01 T02580202  RH  071%=      5-min Rain = 0
KCR1 201350Z 17010KT 26/20 A2976 RMK A01 T02590202  RH  071%=      5-min Rain = 0
KCR1 201351Z 16008KT 26/20 A2976 RMK A01 T02590201  RH  071%=      5-min Rain = 0
KCR1 201352Z 15008KT 26/20 A2976 RMK A01 T02590204  RH  072%=      5-min Rain = 0
KCR1 201353Z 16008KT 26/20 A2976 RMK A01 T02600204  RH  071%=      5-min Rain = 0
KCR1 201354Z 17010KT 26/20 A2976 RMK A01 T02600203  RH  071%=      5-min Rain = 0
KCR1 201355Z 17009KT 26/20 A2976 RMK A01 T02600202  RH  070%=      5-min Rain = 0
KCR1 201356Z 16009KT 26/20 A2976 RMK A01 T02590204  RH  072%=      5-min Rain = 0
KCR1 201357Z 16010KT 26/20 A2976 RMK A01 T02600203  RH  071%=      5-min Rain = 0
KCR1 201358Z 16010KT 26/20 A2976 RMK A01 T02600203  RH  071%=      5-min Rain = 0
KCR1 201359Z 17009KT 26/20 A2976 RMK A01 T02600203  RH  071%=      5-min Rain = 0
KCR1 201400Z 17010KT 26/20 A2976 RMK A01 T02590203  RH  071%=      5-min Rain = 0
KCR1 201401Z 17009KT 26/20 A2976 RMK A01 T02600204  RH  071%=      5-min Rain = 0
KCR1 201402Z 16008KT 26/20 A2976 RMK A01 T02610204  RH  071%=      5-min Rain = 0
KCR1 201403Z 17007KT 26/21 A2976 RMK A01 T02620206  RH  071%=      5-min Rain = 0
KCR1 201404Z 17007KT 26/21 A2976 RMK A01 T02640206  RH  070%=      5-min Rain = 0
KCR1 201405Z 16006KT 26/21 A2976 RMK A01 T02640207  RH  071%=      5-min Rain = 0
KCR1 201406Z 16006KT 27/21 A2976 RMK A01 T02660209  RH  071%=      5-min Rain = 0
KCR1 201407Z 16008KT 27/21 A2976 RMK A01 T02670208  RH  070%=      5-min Rain = 0
KCR1 201408Z 17009KT 27/21 A2976 RMK A01 T02670206  RH  069%=      5-min Rain = 0
KCR1 201409Z 16009KT 27/21 A2976 RMK A01 T02660205  RH  069%=      5-min Rain = 0
KCR1 201410Z 17008KT 27/21 A2976 RMK A01 T02650206  RH  070%=      5-min Rain = 0
KCR1 201411Z 17009KT 26/21 A2976 RMK A01 T02640206  RH  070%=      5-min Rain = 0
KCR1 201412Z 17009KT 26/21 A2976 RMK A01 T02640206  RH  071%=      5-min Rain = 0
KCR1 201413Z 17008KT 26/21 A2976 RMK A01 T02640206  RH  071%=      5-min Rain = 0
KCR1 201414Z 18006KT 26/21 A2976 RMK A01 T02640207  RH  071%=      5-min Rain = 0
KCR1 201415Z 16006KT 27/21 A2976 RMK A01 T02650208  RH  071%=      5-min Rain = 0
KCR1 201416Z 16008KT 27/21 A2976 RMK A01 T02660208  RH  070%=      5-min Rain = 0
KCR1 201417Z 16007KT 27/21 A2976 RMK A01 T02660209  RH  071%=      5-min Rain = 0
KCR1 201418Z 17007KT 27/21 A2976 RMK A01 T02670209  RH  071%=      5-min Rain = 0
KCR1 201419Z 18007KT 27/21 A2976 RMK A01 T02680209  RH  070%=      5-min Rain = 0
KCR1 201420Z 17007KT 27/21 A2976 RMK A01 T02680209  RH  070%=      5-min Rain = 0
KCR1 201421Z 16006KT 27/21 A2976 RMK A01 T02680210  RH  071%=      5-min Rain = 0
KCR1 201422Z 16008KT 27/21 A2976 RMK A01 T02690212  RH  071%=      5-min Rain = 0
KCR1 201423Z 17008KT 27/21 A2976 RMK A01 T02720213  RH  070%=      5-min Rain = 0
KCR1 201424Z 17008KT 27/21 A2976 RMK A01 T02730213  RH  070%=      5-min Rain = 0
KCR1 201425Z 16007KT 27/21 A2975 RMK A01 T02730212  RH  069%=      5-min Rain = 0
KCR1 201426Z 17008KT 27/21 A2976 RMK A01 T02740214  RH  070%=      5-min Rain = 0
KCR1 201427Z 17009KT 28/21 A2976 RMK A01 T02750212  RH  068%=      5-min Rain = 0
KCR1 201428Z 17010KT 27/21 A2976 RMK A01 T02740212  RH  069%=      5-min Rain = 0
KCR1 201429Z 18010KT 27/21 A2976 RMK A01 T02740213  RH  069%=      5-min Rain = 0
KCR1 201430Z 18009KT 27/21 A2976 RMK A01 T02740212  RH  069%=      5-min Rain = 0
KCR1 201431Z 17007KT 27/21 A2976 RMK A01 T02740213  RH  069%=      5-min Rain = 0
KCR1 201432Z 17008KT 28/22 A2976 RMK A01 T02760216  RH  070%=      5-min Rain = 0
KCR1 201433Z 16007KT 28/21 A2976 RMK A01 T02770214  RH  068%=      5-min Rain = 0
KCR1 201434Z 15009KT 28/21 A2976 RMK A01 T02770214  RH  069%=      5-min Rain = 0
KCR1 201435Z 16007KT 28/22 A2976 RMK A01 T02760215  RH  069%=      5-min Rain = 0
KCR1 201436Z 16008KT 28/22 A2976 RMK A01 T02770216  RH  069%=      5-min Rain = 0
KCR1 201437Z 18009KT 28/22 A2976 RMK A01 T02780216  RH  069%=      5-min Rain = 0
KCR1 201438Z 18010KT 28/22 A2976 RMK A01 T02780215  RH  068%=      5-min Rain = 0
KCR1 201439Z 18010KT 28/21 A2976 RMK A01 T02780214  RH  068%=      5-min Rain = 0
KCR1 201440Z 18010KT 28/22 A2976 RMK A01 T02780215  RH  068%=      5-min Rain = 0
KCR1 201441Z 17011KT 28/22 A2976 RMK A01 T02770215  RH  069%=      5-min Rain = 0
KCR1 201442Z 17010KT 28/22 A2976 RMK A01 T02780216  RH  069%=      5-min Rain = 0
KCR1 201443Z 18009KT 28/22 A2976 RMK A01 T02790215  RH  068%=      5-min Rain = 0
KCR1 201444Z 18009KT 28/22 A2976 RMK A01 T02790217  RH  069%=      5-min Rain = 0
KCR1 201445Z 18010KT 28/22 A2976 RMK A01 T02810215  RH  068%=      5-min Rain = 0
KCR1 201446Z 18008KT 28/22 A2976 RMK A01 T02800216  RH  068%=      5-min Rain = 0
KCR1 201447Z 18009KT 28/22 A2976 RMK A01 T02810219  RH  069%=      5-min Rain = 0
KCR1 201448Z 18009KT 28/22 A2976 RMK A01 T02820217  RH  068%=      5-min Rain = 0
KCR1 201449Z 20009KT 28/22 A2976 RMK A01 T02820217  RH  068%=      5-min Rain = 0
KCR1 201450Z 19007KT 28/22 A2976 RMK A01 T02820217  RH  068%=      5-min Rain = 0
KCR1 201451Z 18009KT 28/22 A2976 RMK A01 T02830217  RH  068%=      5-min Rain = 0
KCR1 201452Z 18009KT 28/22 A2976 RMK A01 T02830216  RH  067%=      5-min Rain = 0
KCR1 201453Z 17008KT 28/22 A2976 RMK A01 T02820217  RH  068%=      5-min Rain = 0
KCR1 201454Z 17009KT 28/22 A2976 RMK A01 T02820218  RH  068%=      5-min Rain = 0
KCR1 201455Z 18008KT 28/22 A2976 RMK A01 T02830218  RH  068%=      5-min Rain = 0
KCR1 201456Z 18009KT 29/22 A2976 RMK A01 T02850220  RH  068%=      5-min Rain = 0
KCR1 201457Z 18010KT 29/22 A2976 RMK A01 T02860218  RH  067%=      5-min Rain = 0
KCR1 201458Z 18010KT 29/22 A2976 RMK A01 T02860218  RH  067%=      5-min Rain = 0
KCR1 201459Z 18009KT 29/22 A2976 RMK A01 T02850217  RH  067%=      5-min Rain = 0
KCR1 201500Z 17009KT 28/22 A2975 RMK A01 T02840218  RH  067%=      5-min Rain = 0
KCR1 201501Z 17010KT 29/22 A2975 RMK A01 T02850220  RH  068%=      5-min Rain = 0
KCR1 201502Z 17009KT 29/22 A2975 RMK A01 T02860218  RH  067%=      5-min Rain = 0
KCR1 201503Z 17007KT 29/22 A2975 RMK A01 T02860219  RH  067%=      5-min Rain = 0
KCR1 201504Z 17007KT 29/22 A2975 RMK A01 T02860218  RH  067%=      5-min Rain = 0
KCR1 201505Z 16009KT 29/22 A2976 RMK A01 T02870219  RH  067%=      5-min Rain = 0
KCR1 201506Z 17007KT 29/22 A2976 RMK A01 T02880219  RH  066%=      5-min Rain = 0
KCR1 201507Z 19007KT 29/23 A2976 RMK A01 T02890225  RH  068%=      5-min Rain = 0
KCR1 201508Z 18009KT 29/22 A2976 RMK A01 T02920220  RH  065%=      5-min Rain = 0
KCR1 201509Z 19008KT 29/22 A2976 RMK A01 T02900220  RH  066%=      5-min Rain = 0
KCR1 201510Z 19008KT 29/22 A2976 RMK A01 T02890220  RH  066%=      5-min Rain = 0
KCR1 201511Z 19008KT 29/22 A2976 RMK A01 T02910223  RH  067%=      5-min Rain = 0
KCR1 201512Z 20007KT 29/22 A2976 RMK A01 T02930221  RH  065%=      5-min Rain = 0
KCR1 201513Z 20007KT 29/22 A2976 RMK A01 T02910221  RH  066%=      5-min Rain = 0
KCR1 201514Z 21008KT 29/22 A2976 RMK A01 T02920220  RH  065%=      5-min Rain = 0
KCR1 201515Z 19009KT 29/22 A2976 RMK A01 T02920219  RH  065%=      5-min Rain = 0
KCR1 201516Z 20009KT 29/22 A2976 RMK A01 T02910218  RH  065%=      5-min Rain = 0
KCR1 201517Z 20007KT 29/22 A2976 RMK A01 T02900220  RH  066%=      5-min Rain = 0
KCR1 201518Z 19008KT 29/22 A2976 RMK A01 T02920221  RH  066%=      5-min Rain = 0
KCR1 201519Z 20009KT 29/22 A2976 RMK A01 T02930221  RH  065%=      5-min Rain = 0
KCR1 201520Z 20010KT 29/22 A2976 RMK A01 T02930219  RH  065%=      5-min Rain = 0
KCR1 201521Z 19008KT 29/22 A2976 RMK A01 T02920218  RH  064%=      5-min Rain = 0
KCR1 201522Z 20007KT 29/22 A2976 RMK A01 T02910221  RH  066%=      5-min Rain = 0
KCR1 201523Z 19007KT 29/22 A2976 RMK A01 T02920222  RH  066%=      5-min Rain = 0
KCR1 201524Z 18008KT 29/22 A2976 RMK A01 T02940222  RH  065%=      5-min Rain = 0
KCR1 201525Z 17006KT 29/22 A2976 RMK A01 T02940221  RH  065%=      5-min Rain = 0
KCR1 201526Z 18007KT 29/22 A2976 RMK A01 T02930223  RH  066%=      5-min Rain = 0
KCR1 201527Z 22008KT 30/22 A2976 RMK A01 T02950223  RH  065%=      5-min Rain = 0
KCR1 201528Z 21009KT 30/22 A2976 RMK A01 T02970220  RH  064%=      5-min Rain = 0
KCR1 201529Z 21008KT 30/22 A2976 RMK A01 T02970219  RH  063%=      5-min Rain = 0
KCR1 201530Z 20007KT 30/22 A2976 RMK A01 T02970224  RH  065%=      5-min Rain = 0
KCR1 201531Z 20010KT 30/22 A2976 RMK A01 T02980217  RH  062%=      5-min Rain = 0
KCR1 201532Z 21011KT 30/22 A2976 RMK A01 T02980216  RH  061%=      5-min Rain = 0
KCR1 201533Z 21010KT 30/22 A2976 RMK A01 T02980216  RH  062%=      5-min Rain = 0
KCR1 201534Z 20009KT 30/22 A2976 RMK A01 T02960216  RH  062%=      5-min Rain = 0
KCR1 201535Z 20009KT 30/22 A2976 RMK A01 T02960216  RH  062%=      5-min Rain = 0
KCR1 201536Z 19009KT 30/22 A2976 RMK A01 T02960217  RH  063%=      5-min Rain = 0
KCR1 201537Z 18009KT 30/22 A2976 RMK A01 T02970216  RH  062%=      5-min Rain = 0
KCR1 201538Z 20009KT 30/22 A2976 RMK A01 T02980218  RH  062%=      5-min Rain = 0
KCR1 201539Z 21009KT 30/22 A2976 RMK A01 T02990220  RH  063%=      5-min Rain = 0
KCR1 201540Z 20008KT 30/22 A2976 RMK A01 T03000217  RH  061%=      5-min Rain = 0
KCR1 201541Z 21009KT 30/22 A2976 RMK A01 T03000219  RH  062%=      5-min Rain = 0
KCR1 201542Z 20011KT 30/22 A2976 RMK A01 T03010219  RH  062%=      5-min Rain = 0
KCR1 201543Z 20011KT 30/22 A2976 RMK A01 T03010217  RH  061%=      5-min Rain = 0
KCR1 201544Z 18010KT 30/22 A2976 RMK A01 T03000217  RH  061%=      5-min Rain = 0
KCR1 201545Z 22010KT 30/22 A2976 RMK A01 T03000218  RH  062%=      5-min Rain = 0
KCR1 201546Z 21008KT 30/22 A2976 RMK A01 T03010215  RH  060%=      5-min Rain = 0
KCR1 201547Z 19008KT 30/22 A2976 RMK A01 T03010218  RH  061%=      5-min Rain = 0
KCR1 201548Z 21010KT 30/22 A2976 RMK A01 T03010220  RH  062%=      5-min Rain = 0
KCR1 201549Z 20009KT 30/22 A2976 RMK A01 T03010217  RH  061%=      5-min Rain = 0
KCR1 201550Z 19010KT 30/22 A2976 RMK A01 T03010216  RH  060%=      5-min Rain = 0
KCR1 201551Z 18011KT 30/21 A2976 RMK A01 T03010214  RH  060%=      5-min Rain = 0
KCR1 201552Z 20009KT 30/22 A2976 RMK A01 T02990215  RH  060%=      5-min Rain = 0
KCR1 201553Z 21007KT 30/22 A2976 RMK A01 T03000217  RH  061%=      5-min Rain = 0
KCR1 201554Z 21009KT 30/22 A2976 RMK A01 T03030218  RH  060%=      5-min Rain = 0
KCR1 201555Z 21009KT 30/21 A2976 RMK A01 T03040214  RH  059%=      5-min Rain = 0
KCR1 201556Z 21010KT 30/22 A2976 RMK A01 T03030215  RH  059%=      5-min Rain = 0
KCR1 201557Z 20010KT 30/22 A2976 RMK A01 T03010215  RH  060%=      5-min Rain = 0
KCR1 201558Z 20008KT 30/22 A2976 RMK A01 T03010217  RH  061%=      5-min Rain = 0
KCR1 201559Z 20009G14KT 30/22 A2975 RMK A01 T03020219  RH  061%=      5-min Rain = 0
KCR1 201600Z 20011KT 30/22 A2975 RMK A01 T03030216  RH  059%=      5-min Rain = 0
KCR1 201601Z 19011KT 30/22 A2975 RMK A01 T03020215  RH  060%=      5-min Rain = 0
KCR1 201602Z 20011KT 30/21 A2976 RMK A01 T03010214  RH  059%=      5-min Rain = 0
KCR1 201603Z 20010KT 30/21 A2976 RMK A01 T03010213  RH  059%=      5-min Rain = 0
KCR1 201604Z 19007KT 30/22 A2976 RMK A01 T03000217  RH  061%=      5-min Rain = 0
KCR1 201605Z 18007KT 30/22 A2976 RMK A01 T03020218  RH  061%=      5-min Rain = 0
KCR1 201606Z 22008KT 30/22 A2976 RMK A01 T03030219  RH  061%=      5-min Rain = 0
KCR1 201607Z 21008KT 30/22 A2976 RMK A01 T03040216  RH  059%=      5-min Rain = 0
KCR1 201608Z 21009KT 30/22 A2976 RMK A01 T03030215  RH  059%=      5-min Rain = 0
KCR1 201609Z 21008KT 30/22 A2976 RMK A01 T03020218  RH  061%=      5-min Rain = 0
KCR1 201610Z 18008KT 30/22 A2976 RMK A01 T03030218  RH  061%=      5-min Rain = 0
KCR1 201611Z 20010KT 30/22 A2976 RMK A01 T03040218  RH  060%=      5-min Rain = 0
KCR1 201612Z 21010KT 30/22 A2976 RMK A01 T03040217  RH  060%=      5-min Rain = 0
KCR1 201613Z 19010KT 31/22 A2975 RMK A01 T03050215  RH  059%=      5-min Rain = 0
KCR1 201614Z 19009KT 30/22 A2975 RMK A01 T03030215  RH  059%=      5-min Rain = 0
KCR1 201615Z 20009KT 30/22 A2975 RMK A01 T03020218  RH  061%=      5-min Rain = 0
KCR1 201616Z 18006KT 30/22 A2975 RMK A01 T03030220  RH  061%=      5-min Rain = 0
KCR1 201617Z 17008KT 30/22 A2975 RMK A01 T03040221  RH  061%=      5-min Rain = 0
KCR1 201618Z 20008KT 31/22 A2975 RMK A01 T03050219  RH  060%=      5-min Rain = 0
KCR1 201619Z 22009KT 31/22 A2975 RMK A01 T03050217  RH  059%=      5-min Rain = 0
KCR1 201620Z 23009KT 31/22 A2975 RMK A01 T03050217  RH  059%=      5-min Rain = 0
KCR1 201621Z 22009KT 31/22 A2975 RMK A01 T03050217  RH  059%=      5-min Rain = 0
KCR1 201622Z 22007KT 31/22 A2975 RMK A01 T03060221  RH  061%=      5-min Rain = 0
KCR1 201623Z 21010KT 31/22 A2975 RMK A01 T03090222  RH  060%=      5-min Rain = 0
KCR1 201624Z 21010KT 31/22 A2975 RMK A01 T03100217  RH  058%=      5-min Rain = 0
KCR1 201625Z 21009KT 31/22 A2975 RMK A01 T03080216  RH  058%=      5-min Rain = 0
KCR1 201626Z 18010KT 31/22 A2975 RMK A01 T03060219  RH  060%=      5-min Rain = 0
KCR1 201627Z 18010KT 31/22 A2975 RMK A01 T03060219  RH  060%=      5-min Rain = 0
KCR1 201628Z 20011KT 31/22 A2975 RMK A01 T03060220  RH  060%=      5-min Rain = 0
KCR1 201629Z 19010KT 31/22 A2975 RMK A01 T03060222  RH  061%=      5-min Rain = 0
KCR1 201630Z 19009KT 31/22 A2975 RMK A01 T03080223  RH  061%=      5-min Rain = 0
KCR1 201631Z 20009KT 31/22 A2975 RMK A01 T03090222  RH  060%=      5-min Rain = 0
KCR1 201632Z 20008KT 31/23 A2975 RMK A01 T03100225  RH  061%=      5-min Rain = 0
KCR1 201633Z 19008KT 31/22 A2975 RMK A01 T03120223  RH  059%=      5-min Rain = 0
KCR1 201634Z 18006KT 31/22 A2975 RMK A01 T03110223  RH  059%=      5-min Rain = 0
KCR1 201635Z 19010KT 31/22 A2975 RMK A01 T03120224  RH  060%=      5-min Rain = 0
KCR1 201641Z 19012KT 31/22 A2975 RMK A01 T03120218  RH  058%=      5-min Rain = 0
KCR1 201642Z 20010KT 31/22 A2975 RMK A01 T03110219  RH  058%=      5-min Rain = 0
KCR1 201643Z 20011KT 31/22 A2975 RMK A01 T03110218  RH  058%=      5-min Rain = 0
KCR1 201644Z 19011KT 31/22 A2975 RMK A01 T03110219  RH  058%=      5-min Rain = 0
KCR1 201645Z 19009KT 31/22 A2975 RMK A01 T03120217  RH  057%=      5-min Rain = 0
KCR1 201646Z 18009KT 31/22 A2975 RMK A01 T03110219  RH  058%=      5-min Rain = 0
KCR1 201647Z 20010KT 31/22 A2975 RMK A01 T03110221  RH  059%=      5-min Rain = 0
KCR1 201648Z 19012KT 31/22 A2975 RMK A01 T03140217  RH  057%=      5-min Rain = 0
KCR1 201649Z 19011KT 31/22 A2975 RMK A01 T03130215  RH  056%=      5-min Rain = 0
KCR1 201650Z 19009KT 31/21 A2975 RMK A01 T03110214  RH  056%=      5-min Rain = 0
KCR1 201651Z 17012KT 31/22 A2975 RMK A01 T03110219  RH  058%=      5-min Rain = 0
KCR1 201652Z 18010KT 31/22 A2975 RMK A01 T03120221  RH  059%=      5-min Rain = 0
KCR1 201653Z 18009KT 31/22 A2975 RMK A01 T03130222  RH  058%=      5-min Rain = 0
KCR1 201654Z 18009KT 31/22 A2975 RMK A01 T03130222  RH  058%=      5-min Rain = 0
KCR1 201655Z 18006KT 32/23 A2975 RMK A01 T03150227  RH  060%=      5-min Rain = 0
KCR1 201656Z 20010KT 32/23 A2975 RMK A01 T03180225  RH  058%=      5-min Rain = 0
KCR1 201657Z 19012KT 32/22 A2975 RMK A01 T03190222  RH  056%=      5-min Rain = 0
KCR1 201658Z 19011KT 32/22 A2975 RMK A01 T03180222  RH  057%=      5-min Rain = 0
KCR1 201659Z 20008KT 32/22 A2975 RMK A01 T03150222  RH  058%=      5-min Rain = 0
KCR1 201700Z 17009KT 31/22 A2975 RMK A01 T03140220  RH  057%=      5-min Rain = 0
KCR1 201701Z 16008KT 31/22 A2975 RMK A01 T03120219  RH  058%=      5-min Rain = 0
KCR1 201702Z 17011KT 31/22 A2975 RMK A01 T03120222  RH  059%=      5-min Rain = 0
KCR1 201703Z 17010KT 31/22 A2975 RMK A01 T03130221  RH  058%=      5-min Rain = 0
KCR1 201704Z 18009KT 32/22 A2975 RMK A01 T03150220  RH  057%=      5-min Rain = 0
KCR1 201705Z 19012KT 31/22 A2974 RMK A01 T03140221  RH  058%=      5-min Rain = 0
KCR1 201706Z 19010KT 32/22 A2975 RMK A01 T03150220  RH  057%=      5-min Rain = 0
KCR1 201707Z 19011KT 32/22 A2974 RMK A01 T03160222  RH  058%=      5-min Rain = 0
KCR1 201708Z 19012KT 32/22 A2974 RMK A01 T03170219  RH  056%=      5-min Rain = 0
KCR1 201709Z 20011KT 32/22 A2975 RMK A01 T03170216  RH  055%=      5-min Rain = 0
KCR1 201710Z 20007KT 32/22 A2975 RMK A01 T03170219  RH  056%=      5-min Rain = 0
KCR1 201711Z 19012KT 32/22 A2974 RMK A01 T03190221  RH  056%=      5-min Rain = 0
KCR1 201712Z 19012KT 32/22 A2975 RMK A01 T03190217  RH  055%=      5-min Rain = 0
KCR1 201713Z 18012KT 32/22 A2975 RMK A01 T03170218  RH  056%=      5-min Rain = 0
KCR1 201714Z 17010KT 32/22 A2975 RMK A01 T03170218  RH  056%=      5-min Rain = 0
KCR1 201715Z 18011KT 32/22 A2975 RMK A01 T03190221  RH  056%=      5-min Rain = 0
KCR1 201716Z 18010KT 32/22 A2974 RMK A01 T03200218  RH  055%=      5-min Rain = 0
KCR1 201717Z 17009KT 32/22 A2974 RMK A01 T03190220  RH  056%=      5-min Rain = 0
KCR1 201718Z 20011KT 32/22 A2974 RMK A01 T03200222  RH  056%=      5-min Rain = 0
KCR1 201719Z 20011KT 32/22 A2974 RMK A01 T03240221  RH  055%=      5-min Rain = 0
KCR1 201720Z 21011KT 33/21 A2974 RMK A01 T03250214  RH  052%=      5-min Rain = 0
KCR1 201721Z 21012KT 32/21 A2974 RMK A01 T03240214  RH  052%=      5-min Rain = 0
KCR1 201722Z 20011KT 32/22 A2974 RMK A01 T03240215  RH  053%=      5-min Rain = 0
KCR1 201723Z 19011KT 32/22 A2974 RMK A01 T03240215  RH  053%=      5-min Rain = 0
KCR1 201724Z 18009KT 32/22 A2975 RMK A01 T03230215  RH  053%=      5-min Rain = 0
KCR1 201725Z 19010KT 32/22 A2974 RMK A01 T03220215  RH  053%=      5-min Rain = 0
KCR1 201726Z 18011KT 32/21 A2974 RMK A01 T03220214  RH  053%=      5-min Rain = 0
KCR1 201727Z 20012KT 32/22 A2974 RMK A01 T03220215  RH  053%=      5-min Rain = 0
KCR1 201728Z 18011KT 32/21 A2974 RMK A01 T03220213  RH  052%=      5-min Rain = 0
KCR1 201729Z 18009KT 32/22 A2974 RMK A01 T03220215  RH  053%=      5-min Rain = 0
KCR1 201730Z 18012KT 32/22 A2974 RMK A01 T03220216  RH  054%=      5-min Rain = 0
KCR1 201731Z 19010KT 32/21 A2975 RMK A01 T03230213  RH  052%=      5-min Rain = 0
KCR1 201732Z 19008KT 33/22 A2975 RMK A01 T03250216  RH  053%=      5-min Rain = 0
KCR1 201733Z 17010KT 33/22 A2974 RMK A01 T03280217  RH  052%=      5-min Rain = 0
KCR1 201734Z 18011KT 33/21 A2974 RMK A01 T03280212  RH  051%=      5-min Rain = 0
KCR1 201735Z 20012KT 33/21 A2975 RMK A01 T03270212  RH  051%=      5-min Rain = 0
KCR1 201736Z 20011KT 33/21 A2975 RMK A01 T03270209  RH  050%=      5-min Rain = 0
KCR1 201737Z 19010KT 33/21 A2975 RMK A01 T03260210  RH  050%=      5-min Rain = 0
KCR1 201738Z 19012KT 33/21 A2975 RMK A01 T03260211  RH  051%=      5-min Rain = 0
KCR1 201739Z 19011KT 33/21 A2975 RMK A01 T03270212  RH  051%=      5-min Rain = 0
KCR1 201740Z 18010KT 33/21 A2974 RMK A01 T03280212  RH  051%=      5-min Rain = 0
KCR1 201741Z 18009KT 33/21 A2974 RMK A01 T03270210  RH  050%=      5-min Rain = 0
KCR1 201742Z 17011KT 33/21 A2974 RMK A01 T03270214  RH  051%=      5-min Rain = 0
KCR1 201743Z 17009KT 33/21 A2974 RMK A01 T03280214  RH  051%=      5-min Rain = 0
KCR1 201744Z 18009KT 33/22 A2974 RMK A01 T03300220  RH  053%=      5-min Rain = 0
KCR1 201745Z 19010KT 33/22 A2974 RMK A01 T03320215  RH  050%=      5-min Rain = 0
KCR1 201746Z 18013KT 33/21 A2974 RMK A01 T03300214  RH  051%=      5-min Rain = 0
KCR1 201747Z 17012KT 33/21 A2974 RMK A01 T03280212  RH  051%=      5-min Rain = 0
KCR1 201748Z 18011KT 33/21 A2974 RMK A01 T03280209  RH  050%=      5-min Rain = 0
KCR1 201749Z 17011KT 33/21 A2974 RMK A01 T03280213  RH  051%=      5-min Rain = 0
KCR1 201750Z 19011KT 33/21 A2974 RMK A01 T03310212  RH  050%=      5-min Rain = 0
KCR1 201751Z 21008KT 33/21 A2974 RMK A01 T03320207  RH  048%=      5-min Rain = 0
KCR1 201752Z 20007KT 33/21 A2974 RMK A01 T03320208  RH  048%=      5-min Rain = 0
KCR1 201753Z 19009KT 33/21 A2974 RMK A01 T03340208  RH  048%=      5-min Rain = 0
KCR1 201754Z 19010KT 33/21 A2974 RMK A01 T03340210  RH  048%=      5-min Rain = 0
KCR1 201755Z 18012KT 33/21 A2974 RMK A01 T03340206  RH  047%=      5-min Rain = 0
KCR1 201756Z 18012KT 33/21 A2974 RMK A01 T03320205  RH  047%=      5-min Rain = 0
KCR1 201757Z 20008KT 33/20 A2974 RMK A01 T03310202  RH  047%=      5-min Rain = 0
KCR1 201758Z 20008KT 33/20 A2974 RMK A01 T03310202  RH  047%=      5-min Rain = 0
KCR1 201759Z 20009KT 33/21 A2974 RMK A01 T03310209  RH  049%=      5-min Rain = 0
KCR1 201800Z 20012KT 34/21 A2974 RMK A01 T03350210  RH  048%=      5-min Rain = 0
KCR1 201801Z 21011KT 34/21 A2974 RMK A01 T03370205  RH  046%=      5-min Rain = 0
KCR1 201802Z 20011KT 34/20 A2974 RMK A01 T03380204  RH  045%=      5-min Rain = 0
KCR1 201803Z 20010KT 34/21 A2974 RMK A01 T03380207  RH  047%=      5-min Rain = 0
KCR1 201804Z 21010KT 34/20 A2974 RMK A01 T03380202  RH  045%=      5-min Rain = 0
KCR1 201805Z 22009KT 34/20 A2974 RMK A01 T03360200  RH  045%=      5-min Rain = 0
KCR1 201806Z 21008KT 33/20 A2974 RMK A01 T03340202  RH  046%=      5-min Rain = 0
KCR1 201807Z 21009KT 34/21 A2974 RMK A01 T03360206  RH  047%=      5-min Rain = 0
KCR1 201808Z 19008KT 34/21 A2974 RMK A01 T03390209  RH  047%=      5-min Rain = 0
KCR1 201809Z 19007KT 34/21 A2974 RMK A01 T03390214  RH  048%=      5-min Rain = 0
KCR1 201810Z 18007G12KT 34/21 A2974 RMK A01 T03400213  RH  048%=      5-min Rain = 0
KCR1 201811Z 19010KT 34/20 A2974 RMK A01 T03390204  RH  045%=      5-min Rain = 0
KCR1 201812Z 19012KT 34/21 A2974 RMK A01 T03390205  RH  046%=      5-min Rain = 0
KCR1 201813Z 18011KT 34/21 A2974 RMK A01 T03390206  RH  046%=      5-min Rain = 0
KCR1 201814Z 19011KT 34/21 A2974 RMK A01 T03370210  RH  048%=      5-min Rain = 0
KCR1 201815Z 19009KT 34/21 A2974 RMK A01 T03380206  RH  046%=      5-min Rain = 0
KCR1 201816Z 19008KT 34/21 A2974 RMK A01 T03380207  RH  046%=      5-min Rain = 0
KCR1 201817Z 19011KT 34/21 A2974 RMK A01 T03390206  RH  046%=      5-min Rain = 0
KCR1 201818Z 20010KT 34/20 A2974 RMK A01 T03390203  RH  045%=      5-min Rain = 0
KCR1 201819Z 19011KT 34/20 A2973 RMK A01 T03400203  RH  045%=      5-min Rain = 0
KCR1 201820Z 19010KT 34/20 A2973 RMK A01 T03410201  RH  044%=      5-min Rain = 0
KCR1 201821Z 19009G14KT 34/21 A2973 RMK A01 T03420208  RH  046%=      5-min Rain = 0
KCR1 201822Z 21011KT 34/20 A2973 RMK A01 T03440200  RH  043%=      5-min Rain = 0
KCR1 201823Z 21010KT 34/20 A2973 RMK A01 T03440199  RH  043%=      5-min Rain = 0
KCR1 201824Z 20008KT 34/20 A2973 RMK A01 T03430198  RH  043%=      5-min Rain = 0
KCR1 201825Z 19009KT 34/21 A2973 RMK A01 T03430207  RH  045%=      5-min Rain = 0
KCR1 201826Z 19011KT 34/21 A2973 RMK A01 T03440206  RH  044%=      5-min Rain = 0
KCR1 201827Z 20010KT 34/21 A2973 RMK A01 T03430205  RH  045%=      5-min Rain = 0
KCR1 201828Z 19010KT 34/20 A2973 RMK A01 T03440203  RH  044%=      5-min Rain = 0
KCR1 201829Z 19009KT 34/20 A2973 RMK A01 T03420204  RH  044%=      5-min Rain = 0
KCR1 201830Z 19009KT 34/21 A2973 RMK A01 T03400206  RH  045%=      5-min Rain = 0
KCR1 201831Z 19009KT 34/21 A2973 RMK A01 T03400206  RH  046%=      5-min Rain = 0
KCR1 201832Z 21011KT 34/20 A2973 RMK A01 T03420201  RH  044%=      5-min Rain = 0
KCR1 201833Z 22009KT 35/20 A2973 RMK A01 T03450200  RH  043%=      5-min Rain = 0
KCR1 201834Z 20008KT 35/21 A2973 RMK A01 T03460206  RH  044%=      5-min Rain = 0
KCR1 201835Z 21006KT 35/21 A2973 RMK A01 T03460206  RH  044%=      5-min Rain = 0
KCR1 201836Z 19009KT 35/21 A2973 RMK A01 T03460210  RH  045%=      5-min Rain = 0
KCR1 201837Z 18011KT 35/21 A2973 RMK A01 T03470210  RH  045%=      5-min Rain = 0
KCR1 201838Z 19008KT 35/21 A2973 RMK A01 T03460208  RH  045%=      5-min Rain = 0
KCR1 201839Z 18008KT 34/20 A2973 RMK A01 T03440204  RH  044%=      5-min Rain = 0
KCR1 201840Z 18009KT 34/21 A2973 RMK A01 T03430207  RH  045%=      5-min Rain = 0
KCR1 201841Z 20011KT 35/21 A2973 RMK A01 T03460209  RH  045%=      5-min Rain = 0
KCR1 201842Z 20009KT 35/21 A2973 RMK A01 T03480205  RH  043%=      5-min Rain = 0
KCR1 201843Z 18010KT 35/21 A2973 RMK A01 T03480207  RH  044%=      5-min Rain = 0
KCR1 201844Z 20008KT 35/21 A2973 RMK A01 T03450207  RH  044%=      5-min Rain = 0
KCR1 201845Z 20007KT 35/21 A2973 RMK A01 T03450208  RH  045%=      5-min Rain = 0
KCR1 201846Z 20009KT 35/21 A2973 RMK A01 T03470210  RH  045%=      5-min Rain = 0
KCR1 201847Z 19007KT 35/21 A2973 RMK A01 T03500208  RH  044%=      5-min Rain = 0
KCR1 201848Z 18007KT 35/20 A2973 RMK A01 T03490203  RH  042%=      5-min Rain = 0
KCR1 201849Z 18008KT 35/21 A2973 RMK A01 T03480207  RH  044%=      5-min Rain = 0
KCR1 201850Z 18011KT 35/21 A2973 RMK A01 T03480206  RH  044%=      5-min Rain = 0
KCR1 201851Z 18011KT 35/20 A2973 RMK A01 T03490203  RH  043%=      5-min Rain = 0
KCR1 201852Z 18011KT 35/20 A2973 RMK A01 T03480204  RH  043%=      5-min Rain = 0
KCR1 201853Z 20010KT 35/20 A2973 RMK A01 T03490201  RH  042%=      5-min Rain = 0
KCR1 201854Z 21010KT 35/20 A2973 RMK A01 T03500199  RH  041%=      5-min Rain = 0
KCR1 201855Z 21007KT 35/19 A2973 RMK A01 T03510194  RH  040%=      5-min Rain = 0
KCR1 201856Z 22008KT 35/20 A2973 RMK A01 T03510198  RH  041%=      5-min Rain = 0
KCR1 201857Z 22010KT 35/20 A2973 RMK A01 T03530201  RH  041%=      5-min Rain = 0
KCR1 201858Z 21009KT 36/20 A2973 RMK A01 T03550198  RH  040%=      5-min Rain = 0
KCR1 201859Z 24009KT 36/20 A2973 RMK A01 T03550197  RH  040%=      5-min Rain = 0
KCR1 201900Z 23008KT 36/20 A2973 RMK A01 T03550197  RH  040%=      5-min Rain = 0
KCR1 201901Z 21010KT 36/20 A2973 RMK A01 T03560201  RH  040%=      5-min Rain = 0
KCR1 201902Z 20011KT 36/20 A2973 RMK A01 T03570198  RH  040%=      5-min Rain = 0
KCR1 201903Z 19011KT 36/20 A2973 RMK A01 T03560196  RH  039%=      5-min Rain = 0
KCR1 201904Z 18010KT 36/20 A2973 RMK A01 T03550197  RH  040%=      5-min Rain = 0
KCR1 201905Z 20008KT 35/19 A2973 RMK A01 T03530194  RH  039%=      5-min Rain = 0
KCR1 201906Z 19007G12KT 35/19 A2973 RMK A01 T03510194  RH  040%=      5-min Rain = 0
KCR1 201907Z 18009KT 35/20 A2973 RMK A01 T03520196  RH  040%=      5-min Rain = 0
KCR1 201908Z 19010KT 35/20 A2973 RMK A01 T03530196  RH  040%=      5-min Rain = 0
KCR1 201909Z 19010KT 35/19 A2972 RMK A01 T03530194  RH  039%=      5-min Rain = 0
KCR1 201910Z 20012KT 36/20 A2972 RMK A01 T03550197  RH  040%=      5-min Rain = 0
KCR1 201911Z 20012KT 36/19 A2973 RMK A01 T03580192  RH  038%=      5-min Rain = 0
KCR1 201912Z 19010KT 36/19 A2972 RMK A01 T03570189  RH  037%=      5-min Rain = 0
KCR1 201913Z 19010KT 36/19 A2972 RMK A01 T03560192  RH  038%=      5-min Rain = 0
KCR1 201914Z 19007KT 36/20 A2972 RMK A01 T03570196  RH  039%=      5-min Rain = 0
KCR1 201915Z 20006KT 36/20 A2972 RMK A01 T03570196  RH  039%=      5-min Rain = 0
KCR1 201916Z 21009KT 36/20 A2972 RMK A01 T03580202  RH  040%=      5-min Rain = 0
KCR1 201917Z 21008KT 36/20 A2972 RMK A01 T03610198  RH  039%=      5-min Rain = 0
KCR1 201918Z 18011KT 36/20 A2972 RMK A01 T03620200  RH  039%=      5-min Rain = 0
KCR1 201919Z 20010KT 36/20 A2972 RMK A01 T03600195  RH  038%=      5-min Rain = 0
KCR1 201920Z 21011KT 36/20 A2972 RMK A01 T03590196  RH  038%=      5-min Rain = 0
KCR1 201921Z 21009KT 36/19 A2972 RMK A01 T03610191  RH  037%=      5-min Rain = 0
KCR1 201922Z 20008KT 36/19 A2972 RMK A01 T03600193  RH  038%=      5-min Rain = 0
KCR1 201923Z 22009KT 36/20 A2972 RMK A01 T03610196  RH  038%=      5-min Rain = 0
KCR1 201924Z 22010KT 36/19 A2972 RMK A01 T03630193  RH  037%=      5-min Rain = 0
KCR1 201925Z 21010KT 36/19 A2972 RMK A01 T03600193  RH  038%=      5-min Rain = 0
KCR1 201926Z 21010KT 36/20 A2972 RMK A01 T03590199  RH  039%=      5-min Rain = 0
KCR1 201927Z 21014KT 36/19 A2972 RMK A01 T03610193  RH  038%=      5-min Rain = 0
KCR1 201928Z 21011KT 36/19 A2972 RMK A01 T03620188  RH  036%=      5-min Rain = 0
KCR1 201929Z 21011KT 36/19 A2972 RMK A01 T03620187  RH  036%=      5-min Rain = 0
KCR1 201930Z 22010KT 36/19 A2972 RMK A01 T03610188  RH  036%=      5-min Rain = 0
KCR1 201931Z 20011KT 36/19 A2972 RMK A01 T03600186  RH  036%=      5-min Rain = 0
KCR1 201932Z 21008KT 36/19 A2972 RMK A01 T03600187  RH  036%=      5-min Rain = 0
KCR1 201933Z 20008KT 36/19 A2972 RMK A01 T03600193  RH  038%=      5-min Rain = 0
KCR1 201934Z 20009KT 36/20 A2972 RMK A01 T03610200  RH  039%=      5-min Rain = 0
KCR1 201935Z 21010KT 36/20 A2972 RMK A01 T03630198  RH  038%=      5-min Rain = 0
KCR1 201936Z 21009KT 36/20 A2972 RMK A01 T03640201  RH  039%=      5-min Rain = 0
KCR1 201937Z 21008KT 36/20 A2972 RMK A01 T03640199  RH  038%=      5-min Rain = 0
KCR1 201938Z 19010KT 37/20 A2972 RMK A01 T03650200  RH  038%=      5-min Rain = 0
KCR1 201939Z 18012KT 37/20 A2972 RMK A01 T03650199  RH  038%=      5-min Rain = 0
KCR1 201940Z 19012KT 36/20 A2972 RMK A01 T03640197  RH  038%=      5-min Rain = 0
KCR1 201941Z 20011KT 36/19 A2972 RMK A01 T03630193  RH  037%=      5-min Rain = 0
KCR1 201942Z 20010KT 37/19 A2972 RMK A01 T03660194  RH  037%=      5-min Rain = 0
KCR1 201943Z 20009KT 37/19 A2972 RMK A01 T03670192  RH  036%=      5-min Rain = 0
KCR1 201944Z 21010KT 37/20 A2972 RMK A01 T03680195  RH  036%=      5-min Rain = 0
KCR1 201945Z 19009KT 37/20 A2972 RMK A01 T03690196  RH  036%=      5-min Rain = 0
KCR1 201946Z 19010KT 37/19 A2972 RMK A01 T03690193  RH  036%=      5-min Rain = 0
KCR1 201947Z 21013KT 37/19 A2972 RMK A01 T03660190  RH  036%=      5-min Rain = 0
KCR1 201948Z 20011KT 37/18 A2972 RMK A01 T03660184  RH  034%=      5-min Rain = 0
KCR1 201949Z 19011KT 37/19 A2972 RMK A01 T03650187  RH  035%=      5-min Rain = 0
KCR1 201950Z 19011KT 37/18 A2972 RMK A01 T03650184  RH  035%=      5-min Rain = 0
KCR1 201951Z 20012KT 37/19 A2972 RMK A01 T03670187  RH  035%=      5-min Rain = 0
KCR1 201952Z 21011KT 37/19 A2972 RMK A01 T03680186  RH  034%=      5-min Rain = 0
KCR1 201953Z 21011KT 37/19 A2972 RMK A01 T03680190  RH  035%=      5-min Rain = 0
KCR1 201954Z 20009KT 37/19 A2972 RMK A01 T03680190  RH  035%=      5-min Rain = 0
KCR1 201955Z 21010G15KT 37/19 A2972 RMK A01 T03680189  RH  035%=      5-min Rain = 0
KCR1 201956Z 20012KT 37/19 A2972 RMK A01 T03670190  RH  036%=      5-min Rain = 0
KCR1 201957Z 21010KT 37/19 A2972 RMK A01 T03670185  RH  034%=      5-min Rain = 0
KCR1 201958Z 21009KT 37/19 A2972 RMK A01 T03670188  RH  035%=      5-min Rain = 0
KCR1 201959Z 19007KT 37/19 A2972 RMK A01 T03680194  RH  036%=      5-min Rain = 0
KCR1 202000Z 20010KT 37/19 A2972 RMK A01 T03700193  RH  036%=      5-min Rain = 0
KCR1 202001Z 18009KT 37/20 A2972 RMK A01 T03710197  RH  036%=      5-min Rain = 0
KCR1 202002Z 18009KT 37/20 A2971 RMK A01 T03700196  RH  036%=      5-min Rain = 0
KCR1 202003Z 19010KT 37/20 A2971 RMK A01 T03680198  RH  037%=      5-min Rain = 0
KCR1 202004Z 21011KT 37/19 A2971 RMK A01 T03680193  RH  036%=      5-min Rain = 0
KCR1 202005Z 21008KT 37/19 A2971 RMK A01 T03710190  RH  035%=      5-min Rain = 0
KCR1 202006Z 21007KT 37/19 A2971 RMK A01 T03740193  RH  035%=      5-min Rain = 0
KCR1 202007Z 19009KT 38/20 A2971 RMK A01 T03760199  RH  036%=      5-min Rain = 0
KCR1 202008Z 18010KT 38/20 A2971 RMK A01 T03750197  RH  036%=      5-min Rain = 0
KCR1 202009Z 19012KT 37/20 A2971 RMK A01 T03720203  RH  038%=      5-min Rain = 0
KCR1 202010Z 19011KT 37/20 A2971 RMK A01 T03700196  RH  036%=      5-min Rain = 0
KCR1 202011Z 19012KT 37/20 A2971 RMK A01 T03690200  RH  038%=      5-min Rain = 0
KCR1 202012Z 20012KT 37/20 A2971 RMK A01 T03680200  RH  038%=      5-min Rain = 0
KCR1 202013Z 19010KT 37/20 A2971 RMK A01 T03670201  RH  038%=      5-min Rain = 0
KCR1 202014Z 17010KT 37/21 A2971 RMK A01 T03660205  RH  039%=      5-min Rain = 0
KCR1 202015Z 16009KT 37/21 A2971 RMK A01 T03660205  RH  039%=      5-min Rain = 0
KCR1 202016Z 18010KT 37/21 A2971 RMK A01 T03660211  RH  041%=      5-min Rain = 0
KCR1 202017Z 18010KT 37/20 A2971 RMK A01 T03680204  RH  039%=      5-min Rain = 0
KCR1 202018Z 20011KT 37/20 A2971 RMK A01 T03670200  RH  038%=      5-min Rain = 0
KCR1 202019Z 18010KT 37/20 A2971 RMK A01 T03670196  RH  037%=      5-min Rain = 0
KCR1 202020Z 18010KT 37/21 A2971 RMK A01 T03670207  RH  040%=      5-min Rain = 0
KCR1 202021Z 18011KT 37/21 A2971 RMK A01 T03680208  RH  040%=      5-min Rain = 0
KCR1 202022Z 17010KT 37/21 A2971 RMK A01 T03680206  RH  039%=      5-min Rain = 0
KCR1 202023Z 16009KT 37/20 A2971 RMK A01 T03670202  RH  038%=      5-min Rain = 0
KCR1 202024Z 17011KT 37/20 A2971 RMK A01 T03660203  RH  039%=      5-min Rain = 0
KCR1 202025Z 18012KT 37/20 A2971 RMK A01 T03660204  RH  039%=      5-min Rain = 0
KCR1 202026Z 19010KT 37/20 A2971 RMK A01 T03660201  RH  038%=      5-min Rain = 0
KCR1 202027Z 19010KT 37/20 A2971 RMK A01 T03660202  RH  039%=      5-min Rain = 0
KCR1 202028Z 17012KT 37/21 A2971 RMK A01 T03680206  RH  039%=      5-min Rain = 0
KCR1 202029Z 17011KT 37/21 A2971 RMK A01 T03680210  RH  040%=      5-min Rain = 0
KCR1 202030Z 18010KT 37/21 A2971 RMK A01 T03690212  RH  040%=      5-min Rain = 0
KCR1 202031Z 18013KT 37/20 A2971 RMK A01 T03690203  RH  038%=      5-min Rain = 0
KCR1 202032Z 18011KT 37/20 A2971 RMK A01 T03670204  RH  039%=      5-min Rain = 0
KCR1 202033Z 18013KT 37/20 A2971 RMK A01 T03660201  RH  038%=      5-min Rain = 0
KCR1 202034Z 19012KT 37/20 A2971 RMK A01 T03670203  RH  039%=      5-min Rain = 0
KCR1 202035Z 17012KT 37/20 A2971 RMK A01 T03680201  RH  038%=      5-min Rain = 0
KCR1 202036Z 18010KT 37/21 A2971 RMK A01 T03680208  RH  040%=      5-min Rain = 0
KCR1 202037Z 19011KT 37/21 A2971 RMK A01 T03700206  RH  039%=      5-min Rain = 0
KCR1 202038Z 20011KT 37/20 A2971 RMK A01 T03710202  RH  038%=      5-min Rain = 0
KCR1 202039Z 20010KT 37/20 A2971 RMK A01 T03720197  RH  036%=      5-min Rain = 0
KCR1 202040Z 18012KT 37/20 A2971 RMK A01 T03710203  RH  038%=      5-min Rain = 0
KCR1 202041Z 18011KT 37/20 A2971 RMK A01 T03700199  RH  037%=      5-min Rain = 0
KCR1 202042Z 18011KT 37/20 A2971 RMK A01 T03690203  RH  038%=      5-min Rain = 0
KCR1 202043Z 19011KT 37/21 A2971 RMK A01 T03710209  RH  039%=      5-min Rain = 0
KCR1 202044Z 18014KT 37/21 A2971 RMK A01 T03720205  RH  038%=      5-min Rain = 0
KCR1 202045Z 18011KT 37/20 A2971 RMK A01 T03700201  RH  037%=      5-min Rain = 0
KCR1 202046Z 18010KT 37/20 A2971 RMK A01 T03680203  RH  038%=      5-min Rain = 0
KCR1 202047Z 17008KT 37/20 A2971 RMK A01 T03680202  RH  038%=      5-min Rain = 0
KCR1 202048Z 17008KT 37/20 A297 RMK A01 T03680196  RH  037%=      5-min Rain = 0
KCR1 202049Z 19008KT 37/21 A297 RMK A01 T03680206  RH  039%=      5-min Rain = 0
KCR1 202050Z 19010KT 37/21 A297 RMK A01 T03710205  RH  038%=      5-min Rain = 0
KCR1 202051Z 20012KT 37/20 A297 RMK A01 T03740199  RH  036%=      5-min Rain = 0
KCR1 202052Z 20012KT 37/20 A297 RMK A01 T03740197  RH  036%=      5-min Rain = 0
KCR1 202053Z 19011KT 38/20 A297 RMK A01 T03750200  RH  036%=      5-min Rain = 0
KCR1 202054Z 18012KT 38/19 A297 RMK A01 T03750194  RH  035%=      5-min Rain = 0
KCR1 202055Z 18013KT 37/19 A297 RMK A01 T03730193  RH  035%=      5-min Rain = 0
KCR1 202056Z 18012KT 37/19 A297 RMK A01 T03720190  RH  035%=      5-min Rain = 0
KCR1 202057Z 18009KT 37/19 A297 RMK A01 T03700194  RH  036%=      5-min Rain = 0
KCR1 202058Z 18009KT 37/20 A297 RMK A01 T03710199  RH  037%=      5-min Rain = 0
KCR1 202059Z 17011KT 37/20 A297 RMK A01 T03720202  RH  037%=      5-min Rain = 0
KCR1 202100Z 18012KT 37/20 A297 RMK A01 T03740198  RH  036%=      5-min Rain = 0
KCR1 202101Z 18014KT 38/19 A297 RMK A01 T03750191  RH  034%=      5-min Rain = 0
KCR1 202102Z 18011KT 38/19 A297 RMK A01 T03750191  RH  034%=      5-min Rain = 0
KCR1 202103Z 18009KT 38/20 A297 RMK A01 T03750196  RH  035%=      5-min Rain = 0
KCR1 202104Z 18011KT 38/20 A297 RMK A01 T03760196  RH  035%=      5-min Rain = 0
KCR1 202105Z 19012KT 38/19 A297 RMK A01 T03760192  RH  034%=      5-min Rain = 0
KCR1 202106Z 19011KT 38/19 A297 RMK A01 T03760191  RH  034%=      5-min Rain = 0
KCR1 202107Z 19009KT 38/20 A297 RMK A01 T03770196  RH  035%=      5-min Rain = 0
KCR1 202108Z 19013KT 38/20 A297 RMK A01 T03770197  RH  035%=      5-min Rain = 0
KCR1 202109Z 18013KT 38/19 A297 RMK A01 T03780194  RH  034%=      5-min Rain = 0
KCR1 202110Z 18012KT 38/20 A297 RMK A01 T03770199  RH  036%=      5-min Rain = 0
KCR1 202111Z 18010KT 38/20 A297 RMK A01 T03760202  RH  036%=      5-min Rain = 0
KCR1 202112Z 17011KT 38/20 A297 RMK A01 T03760201  RH  036%=      5-min Rain = 0
KCR1 202113Z 18009KT 38/20 A297 RMK A01 T03760199  RH  036%=      5-min Rain = 0
KCR1 202114Z 18009KT 38/20 A297 RMK A01 T03750199  RH  036%=      5-min Rain = 0
KCR1 202115Z 18012KT 38/20 A2969 RMK A01 T03750200  RH  036%=      5-min Rain = 0
KCR1 202116Z 19012KT 38/19 A2969 RMK A01 T03770192  RH  034%=      5-min Rain = 0
KCR1 202117Z 19013KT 38/19 A2969 RMK A01 T03770188  RH  033%=      5-min Rain = 0
KCR1 202118Z 19009KT 38/19 A2969 RMK A01 T03780192  RH  034%=      5-min Rain = 0
KCR1 202119Z 19007KT 38/20 A2969 RMK A01 T03770198  RH  035%=      5-min Rain = 0
KCR1 202120Z 19009KT 38/20 A2969 RMK A01 T03780198  RH  035%=      5-min Rain = 0
KCR1 202121Z 18009KT 38/20 A2969 RMK A01 T03790199  RH  035%=      5-min Rain = 0
KCR1 202122Z 17010KT 38/21 A2969 RMK A01 T03790205  RH  037%=      5-min Rain = 0
KCR1 202123Z 18012KT 38/20 A2969 RMK A01 T03790200  RH  035%=      5-min Rain = 0
KCR1 202124Z 18013KT 38/20 A2969 RMK A01 T03790198  RH  035%=      5-min Rain = 0
KCR1 202125Z 17012KT 38/20 A2969 RMK A01 T03780197  RH  035%=      5-min Rain = 0
KCR1 202126Z 17010KT 38/20 A2969 RMK A01 T03770196  RH  035%=      5-min Rain = 0
KCR1 202127Z 19010KT 38/20 A2969 RMK A01 T03770200  RH  036%=      5-min Rain = 0
KCR1 202128Z 17011KT 38/20 A2969 RMK A01 T03780197  RH  035%=      5-min Rain = 0
KCR1 202129Z 18010KT 38/20 A2969 RMK A01 T03780199  RH  035%=      5-min Rain = 0
KCR1 202130Z 18011KT 38/20 A2969 RMK A01 T03780201  RH  036%=      5-min Rain = 0
KCR1 202131Z 17011KT 38/20 A2969 RMK A01 T03790199  RH  035%=      5-min Rain = 0
KCR1 202132Z 16010KT 38/20 A2969 RMK A01 T03790200  RH  036%=      5-min Rain = 0
KCR1 202133Z 17011KT 38/20 A2969 RMK A01 T03780199  RH  035%=      5-min Rain = 0
KCR1 202134Z 18010KT 38/20 A2969 RMK A01 T03770200  RH  036%=      5-min Rain = 0
KCR1 202135Z 18011KT 38/19 A2968 RMK A01 T03780194  RH  034%=      5-min Rain = 0
KCR1 202136Z 17011KT 38/20 A2968 RMK A01 T03780198  RH  035%=      5-min Rain = 0
KCR1 202137Z 16011KT 38/20 A2968 RMK A01 T03780196  RH  035%=      5-min Rain = 0
KCR1 202138Z 16011KT 38/20 A2968 RMK A01 T03770198  RH  035%=      5-min Rain = 0
KCR1 202139Z 17010KT 38/20 A2968 RMK A01 T03770201  RH  036%=      5-min Rain = 0
KCR1 202140Z 18008G13KT 38/20 A2968 RMK A01 T03780200  RH  036%=      5-min Rain = 0
KCR1 202141Z 17011KT 38/20 A2968 RMK A01 T03780201  RH  036%=      5-min Rain = 0
KCR1 202142Z 17013KT 38/20 A2968 RMK A01 T03790201  RH  036%=      5-min Rain = 0
KCR1 202143Z 16015KT 38/20 A2968 RMK A01 T03800198  RH  035%=      5-min Rain = 0
KCR1 202144Z 17011KT 38/20 A2968 RMK A01 T03790196  RH  035%=      5-min Rain = 0
KCR1 202145Z 16009KT 38/20 A2968 RMK A01 T03780202  RH  036%=      5-min Rain = 0
KCR1 202146Z 17010KT 38/20 A2968 RMK A01 T03790200  RH  035%=      5-min Rain = 0
KCR1 202147Z 18009KT 38/20 A2968 RMK A01 T03790201  RH  036%=      5-min Rain = 0
KCR1 202148Z 18015KT 38/20 A2968 RMK A01 T03790195  RH  034%=      5-min Rain = 0
KCR1 202149Z 17015KT 38/19 A2968 RMK A01 T03790194  RH  034%=      5-min Rain = 0
KCR1 202150Z 18014KT 38/20 A2968 RMK A01 T03800195  RH  034%=      5-min Rain = 0
KCR1 202151Z 18010KT 38/19 A2968 RMK A01 T03790190  RH  033%=      5-min Rain = 0
KCR1 202152Z 18010KT 38/20 A2968 RMK A01 T03800196  RH  034%=      5-min Rain = 0
KCR1 202153Z 18010KT 38/19 A2968 RMK A01 T03790193  RH  034%=      5-min Rain = 0
KCR1 202154Z 17013KT 38/19 A2968 RMK A01 T03800193  RH  034%=      5-min Rain = 0
KCR1 202155Z 17013KT 38/20 A2968 RMK A01 T03800195  RH  034%=      5-min Rain = 0
KCR1 202156Z 17012KT 38/19 A2968 RMK A01 T03800194  RH  034%=      5-min Rain = 0
KCR1 202157Z 17011KT 38/20 A2968 RMK A01 T03800196  RH  034%=      5-min Rain = 0
KCR1 202158Z 19011KT 38/20 A2968 RMK A01 T03810199  RH  035%=      5-min Rain = 0
KCR1 202159Z 19008KT 38/20 A2968 RMK A01 T03820197  RH  034%=      5-min Rain = 0
KCR1 202200Z 18010KT 38/19 A2968 RMK A01 T03840193  RH  033%=      5-min Rain = 0
KCR1 202201Z 16013KT 38/20 A2968 RMK A01 T03830197  RH  034%=      5-min Rain = 0
KCR1 202202Z 17014KT 38/19 A2968 RMK A01 T03820191  RH  033%=      5-min Rain = 0
KCR1 202203Z 16011KT 38/19 A2968 RMK A01 T03810192  RH  033%=      5-min Rain = 0
KCR1 202204Z 17013KT 38/19 A2968 RMK A01 T03810193  RH  034%=      5-min Rain = 0
KCR1 202205Z 18012G17KT 38/19 A2968 RMK A01 T03810189  RH  033%=      5-min Rain = 0
KCR1 202206Z 18013KT 38/19 A2968 RMK A01 T03800188  RH  033%=      5-min Rain = 0
KCR1 202207Z 17013KT 38/19 A2968 RMK A01 T03800185  RH  032%=      5-min Rain = 0
KCR1 202208Z 16012KT 38/19 A2968 RMK A01 T03810190  RH  033%=      5-min Rain = 0
KCR1 202209Z 17011KT 38/20 A2968 RMK A01 T03820198  RH  034%=      5-min Rain = 0
KCR1 202210Z 17012KT 38/19 A2968 RMK A01 T03830193  RH  033%=      5-min Rain = 0
KCR1 202211Z 17013KT 38/19 A2968 RMK A01 T03830186  RH  032%=      5-min Rain = 0
KCR1 202212Z 17010KT 38/19 A2968 RMK A01 T03830187  RH  032%=      5-min Rain = 0
KCR1 202213Z 19010KT 38/19 A2968 RMK A01 T03830189  RH  033%=      5-min Rain = 0
KCR1 202214Z 18008KT 38/19 A2968 RMK A01 T03830186  RH  032%=      5-min Rain = 0
KCR1 202215Z 18010KT 38/19 A2967 RMK A01 T03830191  RH  033%=      5-min Rain = 0
KCR1 202216Z 18010KT 38/20 A2967 RMK A01 T03840195  RH  033%=      5-min Rain = 0
KCR1 202217Z 18010KT 39/19 A2967 RMK A01 T03850194  RH  033%=      5-min Rain = 0
KCR1 202218Z 18012KT 39/19 A2967 RMK A01 T03860188  RH  032%=      5-min Rain = 0
KCR1 202219Z 18013KT 39/19 A2967 RMK A01 T03850190  RH  032%=      5-min Rain = 0
KCR1 202220Z 17014KT 39/17 A2967 RMK A01 T03850174  RH  029%=      5-min Rain = 0
KCR1 202221Z 18013KT 38/17 A2967 RMK A01 T03840174  RH  029%=      5-min Rain = 0
KCR1 202222Z 19014KT 38/17 A2967 RMK A01 T03840171  RH  029%=      5-min Rain = 0
KCR1 202223Z 19011KT 39/17 A2967 RMK A01 T03850171  RH  029%=      5-min Rain = 0
KCR1 202224Z 18010KT 39/18 A2967 RMK A01 T03850177  RH  030%=      5-min Rain = 0
KCR1 202225Z 18012KT 39/17 A2967 RMK A01 T03860174  RH  029%=      5-min Rain = 0
KCR1 202226Z 18010KT 39/17 A2967 RMK A01 T03860173  RH  029%=      5-min Rain = 0
KCR1 202227Z 18011KT 39/17 A2967 RMK A01 T03860174  RH  029%=      5-min Rain = 0
KCR1 202228Z 18013KT 39/18 A2967 RMK A01 T03860177  RH  030%=      5-min Rain = 0
KCR1 202229Z 18014KT 39/17 A2967 RMK A01 T03850173  RH  029%=      5-min Rain = 0
KCR1 202230Z 19012KT 39/17 A2967 RMK A01 T03850171  RH  028%=      5-min Rain = 0
KCR1 202231Z 19010KT 39/17 A2967 RMK A01 T03850174  RH  029%=      5-min Rain = 0
KCR1 202232Z 19010KT 39/18 A2967 RMK A01 T03860175  RH  029%=      5-min Rain = 0
KCR1 202233Z 20009KT 39/18 A2967 RMK A01 T03870178  RH  030%=      5-min Rain = 0
KCR1 202234Z 20011KT 39/18 A2967 RMK A01 T03880180  RH  030%=      5-min Rain = 0
KCR1 202235Z 19011KT 39/18 A2967 RMK A01 T03890175  RH  029%=      5-min Rain = 0
KCR1 202236Z 17012KT 39/18 A2967 RMK A01 T03900179  RH  029%=      5-min Rain = 0
KCR1 202237Z 17012KT 39/17 A2967 RMK A01 T03890173  RH  028%=      5-min Rain = 0
KCR1 202238Z 17015KT 39/17 A2967 RMK A01 T03880170  RH  028%=      5-min Rain = 0
KCR1 202239Z 17013KT 39/17 A2967 RMK A01 T03870169  RH  028%=      5-min Rain = 0
KCR1 202240Z 18011KT 39/17 A2967 RMK A01 T03870173  RH  029%=      5-min Rain = 0
KCR1 202241Z 17013KT 39/17 A2967 RMK A01 T03860172  RH  029%=      5-min Rain = 0
KCR1 202242Z 18013KT 39/17 A2967 RMK A01 T03870168  RH  028%=      5-min Rain = 0
KCR1 202243Z 18012KT 39/17 A2967 RMK A01 T03870169  RH  028%=      5-min Rain = 0
KCR1 202244Z 18011KT 39/17 A2967 RMK A01 T03870167  RH  028%=      5-min Rain = 0
KCR1 202245Z 18012KT 39/17 A2967 RMK A01 T03870170  RH  028%=      5-min Rain = 0
KCR1 202246Z 19013KT 39/17 A2967 RMK A01 T03880168  RH  028%=      5-min Rain = 0
KCR1 202247Z 18014KT 39/16 A2967 RMK A01 T03880160  RH  026%=      5-min Rain = 0
KCR1 202248Z 18011KT 39/16 A2967 RMK A01 T03870163  RH  027%=      5-min Rain = 0
KCR1 202249Z 18011KT 39/16 A2967 RMK A01 T03870162  RH  027%=      5-min Rain = 0
KCR1 202250Z 18014KT 39/16 A2967 RMK A01 T03870164  RH  027%=      5-min Rain = 0
KCR1 202251Z 19013KT 39/16 A2967 RMK A01 T03870162  RH  027%=      5-min Rain = 0
KCR1 202252Z 18012KT 39/16 A2967 RMK A01 T03870160  RH  026%=      5-min Rain = 0
KCR1 202253Z 18013KT 39/16 A2967 RMK A01 T03870158  RH  026%=      5-min Rain = 0
KCR1 202254Z 18013KT 39/16 A2967 RMK A01 T03870160  RH  026%=      5-min Rain = 0
KCR1 202255Z 18015KT 39/15 A2967 RMK A01 T03880153  RH  025%=      5-min Rain = 0
KCR1 202256Z 18013KT 39/15 A2967 RMK A01 T03880152  RH  025%=      5-min Rain = 0
KCR1 202257Z 18013KT 39/16 A2967 RMK A01 T03880155  RH  025%=      5-min Rain = 0
KCR1 202258Z 19014KT 39/15 A2967 RMK A01 T03880151  RH  025%=      5-min Rain = 0
KCR1 202259Z 18011KT 39/14 A2967 RMK A01 T03890144  RH  024%=      5-min Rain = 0
KCR1 202300Z 18013KT 39/15 A2966 RMK A01 T03890149  RH  024%=      5-min Rain = 0
KCR1 202301Z 19012KT 39/15 A2966 RMK A01 T03900145  RH  024%=      5-min Rain = 0
KCR1 202302Z 19013KT 39/14 A2966 RMK A01 T03900141  RH  023%=      5-min Rain = 0
KCR1 202303Z 19011KT 39/14 A2966 RMK A01 T03900139  RH  023%=      5-min Rain = 0
KCR1 202304Z 18012KT 39/14 A2966 RMK A01 T03910141  RH  023%=      5-min Rain = 0
KCR1 202305Z 19009KT 39/15 A2966 RMK A01 T03910151  RH  024%=      5-min Rain = 0
KCR1 202306Z 19014KT 39/14 A2966 RMK A01 T03910143  RH  023%=      5-min Rain = 0
KCR1 202307Z 19014KT 39/13 A2966 RMK A01 T03910128  RH  021%=      5-min Rain = 0
KCR1 202308Z 19016KT 39/13 A2966 RMK A01 T03920129  RH  021%=      5-min Rain = 0
KCR1 202309Z 19014KT 39/14 A2966 RMK A01 T03920136  RH  022%=      5-min Rain = 0
KCR1 202310Z 18013KT 39/13 A2966 RMK A01 T03920134  RH  022%=      5-min Rain = 0
KCR1 202311Z 18013KT 39/13 A2966 RMK A01 T03910133  RH  022%=      5-min Rain = 0
KCR1 202312Z 18014KT 39/13 A2966 RMK A01 T03910126  RH  021%=      5-min Rain = 0
KCR1 202313Z 19014KT 39/13 A2966 RMK A01 T03910127  RH  021%=      5-min Rain = 0
KCR1 202314Z 19011KT 39/13 A2966 RMK A01 T03910130  RH  021%=      5-min Rain = 0
KCR1 202315Z 20013KT 39/14 A2966 RMK A01 T03910135  RH  022%=      5-min Rain = 0
KCR1 202316Z 20012KT 39/13 A2966 RMK A01 T03920132  RH  022%=      5-min Rain = 0
KCR1 202317Z 19010KT 39/14 A2966 RMK A01 T03920139  RH  022%=      5-min Rain = 0
KCR1 202318Z 18008KT 39/15 A2966 RMK A01 T03920147  RH  024%=      5-min Rain = 0
KCR1 202319Z 18009KT 39/16 A2966 RMK A01 T03910158  RH  025%=      5-min Rain = 0
KCR1 202320Z 18011KT 39/15 A2966 RMK A01 T03900150  RH  024%=      5-min Rain = 0
KCR1 202321Z 18010KT 39/15 A2966 RMK A01 T03900154  RH  025%=      5-min Rain = 0
KCR1 202322Z 18011KT 39/15 A2966 RMK A01 T03890148  RH  024%=      5-min Rain = 0
KCR1 202323Z 18012KT 39/14 A2966 RMK A01 T03890142  RH  023%=      5-min Rain = 0
KCR1 202324Z 18010KT 39/14 A2966 RMK A01 T03890144  RH  024%=      5-min Rain = 0
KCR1 202325Z 18011KT 39/15 A2966 RMK A01 T03880147  RH  024%=      5-min Rain = 0
KCR1 202326Z 17010KT 39/15 A2966 RMK A01 T03880149  RH  024%=      5-min Rain = 0
KCR1 202327Z 18012KT 39/14 A2966 RMK A01 T03890142  RH  023%=      5-min Rain = 0
KCR1 202328Z 19010KT 39/14 A2966 RMK A01 T03880139  RH  023%=      5-min Rain = 0
KCR1 202329Z 19012KT 39/14 A2966 RMK A01 T03890140  RH  023%=      5-min Rain = 0
KCR1 202330Z 18009KT 39/14 A2966 RMK A01 T03890144  RH  023%=      5-min Rain = 0
KCR1 202331Z 18010KT 39/15 A2966 RMK A01 T03890147  RH  024%=      5-min Rain = 0
KCR1 202332Z 18010KT 39/15 A2966 RMK A01 T03880149  RH  024%=      5-min Rain = 0
KCR1 202333Z 18008KT 39/16 A2966 RMK A01 T03880155  RH  025%=      5-min Rain = 0
KCR1 202334Z 18010KT 39/16 A2966 RMK A01 T03880156  RH  026%=      5-min Rain = 0
KCR1 202335Z 17010KT 39/16 A2966 RMK A01 T03870155  RH  026%=      5-min Rain = 0
KCR1 202336Z 18010KT 39/16 A2966 RMK A01 T03870156  RH  026%=      5-min Rain = 0
KCR1 202337Z 17011G17KT 39/16 A2965 RMK A01 T03870158  RH  026%=      5-min Rain = 0
KCR1 202338Z 18013KT 39/14 A2965 RMK A01 T03870143  RH  024%=      5-min Rain = 0
KCR1 202339Z 18013KT 39/14 A2965 RMK A01 T03870141  RH  023%=      5-min Rain = 0
KCR1 202340Z 18012KT 39/14 A2965 RMK A01 T03870143  RH  024%=      5-min Rain = 0
KCR1 202341Z 17012KT 39/14 A2965 RMK A01 T03870143  RH  024%=      5-min Rain = 0
KCR1 202342Z 17010KT 39/15 A2965 RMK A01 T03870145  RH  024%=      5-min Rain = 0
KCR1 202343Z 17010KT 39/15 A2965 RMK A01 T03870152  RH  025%=      5-min Rain = 0
KCR1 202344Z 18010KT 39/15 A2965 RMK A01 T03860150  RH  025%=      5-min Rain = 0
KCR1 202345Z 18010KT 39/15 A2965 RMK A01 T03860145  RH  024%=      5-min Rain = 0
KCR1 202346Z 17008KT 39/15 A2965 RMK A01 T03860153  RH  025%=      5-min Rain = 0
KCR1 202347Z 17010KT 39/15 A2965 RMK A01 T03850151  RH  025%=      5-min Rain = 0
KCR1 202348Z 17009KT 39/15 A2965 RMK A01 T03850149  RH  025%=      5-min Rain = 0
KCR1 202349Z 17009KT 39/15 A2965 RMK A01 T03850149  RH  025%=      5-min Rain = 0
KCR1 202350Z 17009KT 39/15 A2965 RMK A01 T03850149  RH  025%=      5-min Rain = 0
KCR1 202351Z 17008KT 39/16 A2965 RMK A01 T03850158  RH  026%=      5-min Rain = 0
KCR1 202352Z 17009KT 38/15 A2965 RMK A01 T03840153  RH  026%=      5-min Rain = 0
KCR1 202353Z 17010KT 38/15 A2965 RMK A01 T03840153  RH  026%=      5-min Rain = 0
KCR1 202354Z 18012KT 38/15 A2965 RMK A01 T03840148  RH  025%=      5-min Rain = 0
KCR1 202355Z 17010KT 38/15 A2965 RMK A01 T03840146  RH  025%=      5-min Rain = 0
KCR1 202356Z 17010KT 38/15 A2965 RMK A01 T03840151  RH  025%=      5-min Rain = 0
KCR1 202357Z 17011KT 38/15 A2965 RMK A01 T03840148  RH  025%=      5-min Rain = 0
KCR1 202358Z 17010KT 38/15 A2965 RMK A01 T03840152  RH  025%=      5-min Rain = 0
KCR1 202359Z 16010KT 38/15 A2965 RMK A01 T03830152  RH  026%=      5-min Rain = 0
KCR1 210000Z 16010KT 38/16 A2965 RMK A01 T03820156  RH  026%=      5-min Rain = 0
KCR1 210001Z 16009KT 38/16 A2965 RMK A01 T03810158  RH  027%=      5-min Rain = 0
KCR1 210002Z 15010KT 38/18 A2965 RMK A01 T03790176  RH  030%=      5-min Rain = 0
KCR1 210003Z 15009KT 38/20 A2965 RMK A01 T03780196  RH  035%=      5-min Rain = 0
KCR1 210004Z 15011KT 38/21 A2965 RMK A01 T03750205  RH  037%=      5-min Rain = 0
KCR1 210005Z 15009KT 38/21 A2965 RMK A01 T03750211  RH  039%=      5-min Rain = 0
KCR1 210006Z 14010G15KT 37/22 A2965 RMK A01 T03740217  RH  040%=      5-min Rain = 0
KCR1 210007Z 14013KT 37/22 A2965 RMK A01 T03730220  RH  041%=      5-min Rain = 0
KCR1 210008Z 14013KT 37/22 A2965 RMK A01 T03720221  RH  042%=      5-min Rain = 0
KCR1 210009Z 14013KT 37/22 A2965 RMK A01 T03710221  RH  042%=      5-min Rain = 0
KCR1 210010Z 14010KT 37/22 A2965 RMK A01 T03710222  RH  042%=      5-min Rain = 0
KCR1 210011Z 14012KT 37/22 A2965 RMK A01 T03700223  RH  043%=      5-min Rain = 0
KCR1 210012Z 14010KT 37/22 A2965 RMK A01 T03700223  RH  043%=      5-min Rain = 0
KCR1 210013Z 15012KT 37/22 A2965 RMK A01 T03690224  RH  043%=      5-min Rain = 0
KCR1 210014Z 15012KT 37/22 A2965 RMK A01 T03690223  RH  043%=      5-min Rain = 0
KCR1 210015Z 15012KT 37/22 A2965 RMK A01 T03690221  RH  043%=      5-min Rain = 0
KCR1 210016Z 15010KT 37/22 A2965 RMK A01 T03680222  RH  043%=      5-min Rain = 0
KCR1 210017Z 15012KT 37/22 A2965 RMK A01 T03680222  RH  043%=      5-min Rain = 0
KCR1 210018Z 15012KT 37/22 A2965 RMK A01 T03680218  RH  042%=      5-min Rain = 0
KCR1 210019Z 15011KT 37/22 A2965 RMK A01 T03670219  RH  042%=      5-min Rain = 0
KCR1 210020Z 15012KT 37/22 A2965 RMK A01 T03660218  RH  042%=      5-min Rain = 0
KCR1 210021Z 15013KT 37/22 A2965 RMK A01 T03660216  RH  042%=      5-min Rain = 0
KCR1 210022Z 15013KT 37/22 A2965 RMK A01 T03670217  RH  042%=      5-min Rain = 0
KCR1 210023Z 15012KT 37/22 A2965 RMK A01 T03660217  RH  042%=      5-min Rain = 0
KCR1 210024Z 15011KT 37/22 A2965 RMK A01 T03660218  RH  042%=      5-min Rain = 0
KCR1 210025Z 14011KT 37/22 A2965 RMK A01 T03650219  RH  043%=      5-min Rain = 0
KCR1 210026Z 15012KT 36/22 A2965 RMK A01 T03640217  RH  043%=      5-min Rain = 0
KCR1 210027Z 15011KT 36/22 A2965 RMK A01 T03640216  RH  043%=      5-min Rain = 0
KCR1 210028Z 15013KT 36/22 A2965 RMK A01 T03640217  RH  043%=      5-min Rain = 0
KCR1 210029Z 15012KT 36/22 A2965 RMK A01 T03630215  RH  042%=      5-min Rain = 0
KCR1 210030Z 15010KT 36/22 A2965 RMK A01 T03630217  RH  043%=      5-min Rain = 0
KCR1 210031Z 15012KT 36/22 A2965 RMK A01 T03630219  RH  043%=      5-min Rain = 0
KCR1 210032Z 15011KT 36/22 A2965 RMK A01 T03620216  RH  043%=      5-min Rain = 0
KCR1 210033Z 15010KT 36/22 A2965 RMK A01 T03620217  RH  043%=      5-min Rain = 0
KCR1 210034Z 15012KT 36/22 A2965 RMK A01 T03610216  RH  043%=      5-min Rain = 0
KCR1 210035Z 15011KT 36/21 A2965 RMK A01 T03610214  RH  043%=      5-min Rain = 0
KCR1 210036Z 15012KT 36/22 A2965 RMK A01 T03600216  RH  043%=      5-min Rain = 0
KCR1 210037Z 15014KT 36/21 A2965 RMK A01 T03600211  RH  042%=      5-min Rain = 0
KCR1 210038Z 15012KT 36/21 A2965 RMK A01 T03600211  RH  042%=      5-min Rain = 0
KCR1 210039Z 15010KT 36/21 A2965 RMK A01 T03600212  RH  042%=      5-min Rain = 0
KCR1 210040Z 15012KT 36/21 A2965 RMK A01 T03590212  RH  043%=      5-min Rain = 0
KCR1 210041Z 16011KT 36/21 A2965 RMK A01 T03580210  RH  042%=      5-min Rain = 0
KCR1 210042Z 15012KT 36/21 A2965 RMK A01 T03580211  RH  043%=      5-min Rain = 0
KCR1 210043Z 15013KT 36/21 A2965 RMK A01 T03580208  RH  042%=      5-min Rain = 0
KCR1 210044Z 15012KT 36/21 A2965 RMK A01 T03570208  RH  042%=      5-min Rain = 0
KCR1 210045Z 15011KT 36/21 A2965 RMK A01 T03570208  RH  042%=      5-min Rain = 0
KCR1 210046Z 15013KT 36/21 A2965 RMK A01 T03570207  RH  042%=      5-min Rain = 0
KCR1 210047Z 15013KT 36/21 A2965 RMK A01 T03560206  RH  042%=      5-min Rain = 0
KCR1 210048Z 15012KT 36/21 A2965 RMK A01 T03560206  RH  042%=      5-min Rain = 0
KCR1 210049Z 15012KT 36/21 A2965 RMK A01 T03560205  RH  041%=      5-min Rain = 0
KCR1 210050Z 15011KT 36/21 A2965 RMK A01 T03560206  RH  042%=      5-min Rain = 0
KCR1 210051Z 15012KT 36/21 A2965 RMK A01 T03550206  RH  042%=      5-min Rain = 0
KCR1 210052Z 15012KT 35/21 A2965 RMK A01 T03540205  RH  042%=      5-min Rain = 0
KCR1 210053Z 15013KT 35/21 A2965 RMK A01 T03540205  RH  042%=      5-min Rain = 0
KCR1 210054Z 15011KT 35/21 A2965 RMK A01 T03530205  RH  042%=      5-min Rain = 0
KCR1 210055Z 15012KT 35/21 A2965 RMK A01 T03530205  RH  042%=      5-min Rain = 0
KCR1 210056Z 15011KT 35/21 A2965 RMK A01 T03520206  RH  043%=      5-min Rain = 0
KCR1 210057Z 15012KT 35/21 A2965 RMK A01 T03510206  RH  043%=      5-min Rain = 0
KCR1 210058Z 15013KT 35/21 A2965 RMK A01 T03510205  RH  043%=      5-min Rain = 0
KCR1 210059Z 15012KT 35/21 A2965 RMK A01 T03510205  RH  043%=      5-min Rain = 0
KCR1 210100Z 15012KT 35/21 A2965 RMK A01 T03510205  RH  043%=      5-min Rain = 0
KCR1 210101Z 15013KT 35/21 A2965 RMK A01 T03510205  RH  043%=      5-min Rain = 0
KCR1 210102Z 15013KT 35/21 A2965 RMK A01 T03500205  RH  043%=      5-min Rain = 0
KCR1 210103Z 15012KT 35/20 A2965 RMK A01 T03500204  RH  043%=      5-min Rain = 0
KCR1 210104Z 15013KT 35/20 A2965 RMK A01 T03490204  RH  043%=      5-min Rain = 0
KCR1 210105Z 15012KT 35/20 A2965 RMK A01 T03490204  RH  043%=      5-min Rain = 0
KCR1 210106Z 15012KT 35/20 A2965 RMK A01 T03480204  RH  043%=      5-min Rain = 0
KCR1 210107Z 15013KT 35/20 A2965 RMK A01 T03480204  RH  043%=      5-min Rain = 0
KCR1 210108Z 15013KT 35/20 A2965 RMK A01 T03480204  RH  043%=      5-min Rain = 0
KCR1 210109Z 15013KT 35/20 A2965 RMK A01 T03470204  RH  043%=      5-min Rain = 0
KCR1 210110Z 15012KT 35/20 A2965 RMK A01 T03470204  RH  043%=      5-min Rain = 0
KCR1 210111Z 16013KT 35/21 A2965 RMK A01 T03470205  RH  044%=      5-min Rain = 0
KCR1 210112Z 15012KT 35/20 A2965 RMK A01 T03460204  RH  044%=      5-min Rain = 0
KCR1 210113Z 16012KT 35/21 A2965 RMK A01 T03450205  RH  044%=      5-min Rain = 0
KCR1 210114Z 16013KT 34/21 A2965 RMK A01 T03440206  RH  044%=      5-min Rain = 0
KCR1 210115Z 15011KT 34/21 A2965 RMK A01 T03430205  RH  045%=      5-min Rain = 0
KCR1 210116Z 16012KT 34/21 A2965 RMK A01 T03430206  RH  045%=      5-min Rain = 0
KCR1 210117Z 15012KT 34/21 A2965 RMK A01 T03430206  RH  045%=      5-min Rain = 0
KCR1 210118Z 16013KT 34/21 A2965 RMK A01 T03420206  RH  045%=      5-min Rain = 0
KCR1 210119Z 16012KT 34/21 A2965 RMK A01 T03420207  RH  045%=      5-min Rain = 0
KCR1 210120Z 16011KT 34/21 A2965 RMK A01 T03420208  RH  046%=      5-min Rain = 0
KCR1 210121Z 16010KT 34/21 A2965 RMK A01 T03400208  RH  046%=      5-min Rain = 0
KCR1 210122Z 16012KT 34/21 A2965 RMK A01 T03390209  RH  047%=      5-min Rain = 0
KCR1 210123Z 16011KT 34/21 A2965 RMK A01 T03390209  RH  047%=      5-min Rain = 0
KCR1 210124Z 16012KT 34/21 A2965 RMK A01 T03390211  RH  047%=      5-min Rain = 0
KCR1 210125Z 16012KT 34/21 A2965 RMK A01 T03380212  RH  048%=      5-min Rain = 0
KCR1 210126Z 15013KT 34/21 A2965 RMK A01 T03370211  RH  048%=      5-min Rain = 0
KCR1 210127Z 15012KT 34/21 A2965 RMK A01 T03380212  RH  048%=      5-min Rain = 0
KCR1 210128Z 16012KT 34/21 A2965 RMK A01 T03370213  RH  048%=      5-min Rain = 0
KCR1 210129Z 16012KT 34/21 A2965 RMK A01 T03370214  RH  049%=      5-min Rain = 0
KCR1 210130Z 16013KT 34/22 A2965 RMK A01 T03370215  RH  049%=      5-min Rain = 0
KCR1 210131Z 16011KT 34/22 A2965 RMK A01 T03360215  RH  049%=      5-min Rain = 0
KCR1 210132Z 16011KT 34/22 A2965 RMK A01 T03350216  RH  050%=      5-min Rain = 0
KCR1 210133Z 16012KT 34/22 A2965 RMK A01 T03350216  RH  050%=      5-min Rain = 0
KCR1 210134Z 16012KT 34/22 A2965 RMK A01 T03350217  RH  050%=      5-min Rain = 0
KCR1 210135Z 15012KT 34/22 A2965 RMK A01 T03350218  RH  050%=      5-min Rain = 0
KCR1 210136Z 16012KT 33/22 A2965 RMK A01 T03340218  RH  051%=      5-min Rain = 0
KCR1 210137Z 16012KT 33/22 A2965 RMK A01 T03330218  RH  051%=      5-min Rain = 0
KCR1 210138Z 16012KT 33/22 A2965 RMK A01 T03330218  RH  051%=      5-min Rain = 0
KCR1 210139Z 16012KT 33/22 A2965 RMK A01 T03330219  RH  051%=      5-min Rain = 0
KCR1 210140Z 16011KT 33/22 A2965 RMK A01 T03330220  RH  052%=      5-min Rain = 0
KCR1 210141Z 16013KT 33/22 A2965 RMK A01 T03320220  RH  052%=      5-min Rain = 0
KCR1 210142Z 16013KT 33/22 A2965 RMK A01 T03320220  RH  052%=      5-min Rain = 0
KCR1 210143Z 16013KT 33/22 A2965 RMK A01 T03330220  RH  052%=      5-min Rain = 0
KCR1 210144Z 16012KT 33/22 A2965 RMK A01 T03330221  RH  052%=      5-min Rain = 0
KCR1 210145Z 16012KT 33/22 A2965 RMK A01 T03320221  RH  052%=      5-min Rain = 0
KCR1 210146Z 16012KT 33/22 A2965 RMK A01 T03310221  RH  053%=      5-min Rain = 0
KCR1 210147Z 16011KT 33/22 A2965 RMK A01 T03310222  RH  053%=      5-min Rain = 0
KCR1 210148Z 16011KT 33/22 A2965 RMK A01 T03310222  RH  053%=      5-min Rain = 0
KCR1 210149Z 16012KT 33/22 A2965 RMK A01 T03300223  RH  053%=      5-min Rain = 0
KCR1 210150Z 16011KT 33/22 A2965 RMK A01 T03290222  RH  054%=      5-min Rain = 0
KCR1 210151Z 16011KT 33/22 A2965 RMK A01 T03290223  RH  054%=      5-min Rain = 0
KCR1 210152Z 16012KT 33/22 A2965 RMK A01 T03280223  RH  054%=      5-min Rain = 0
KCR1 210153Z 16012KT 33/22 A2965 RMK A01 T03280223  RH  054%=      5-min Rain = 0
KCR1 210154Z 16011KT 33/22 A2965 RMK A01 T03280224  RH  054%=      5-min Rain = 0
KCR1 210155Z 16012KT 33/22 A2965 RMK A01 T03270224  RH  055%=      5-min Rain = 0
KCR1 210156Z 16011KT 33/23 A2965 RMK A01 T03260225  RH  055%=      5-min Rain = 0
KCR1 210157Z 16012KT 33/23 A2965 RMK A01 T03260225  RH  055%=      5-min Rain = 0
KCR1 210158Z 16011KT 33/23 A2965 RMK A01 T03260226  RH  056%=      5-min Rain = 0
KCR1 210159Z 16011KT 33/23 A2965 RMK A01 T03250226  RH  056%=      5-min Rain = 0
KCR1 210200Z 16011KT 32/23 A2966 RMK A01 T03240226  RH  056%=      5-min Rain = 0
KCR1 210201Z 16011KT 32/23 A2966 RMK A01 T03230226  RH  056%=      5-min Rain = 0
KCR1 210202Z 16011KT 32/23 A2966 RMK A01 T03230226  RH  057%=      5-min Rain = 0
KCR1 210203Z 16011KT 32/23 A2966 RMK A01 T03220226  RH  057%=      5-min Rain = 0
KCR1 210204Z 16011KT 32/23 A2966 RMK A01 T03220227  RH  057%=      5-min Rain = 0
KCR1 210205Z 16011KT 32/23 A2966 RMK A01 T03220227  RH  057%=      5-min Rain = 0
KCR1 210206Z 16010KT 32/23 A2966 RMK A01 T03210227  RH  058%=      5-min Rain = 0
KCR1 210207Z 16012KT 32/23 A2966 RMK A01 T03210227  RH  058%=      5-min Rain = 0
KCR1 210208Z 16010KT 32/23 A2966 RMK A01 T03210227  RH  058%=      5-min Rain = 0
KCR1 210209Z 16011KT 32/23 A2966 RMK A01 T03200228  RH  058%=      5-min Rain = 0
KCR1 210210Z 16010KT 32/23 A2966 RMK A01 T03190227  RH  058%=      5-min Rain = 0
KCR1 210211Z 16010KT 32/23 A2966 RMK A01 T03180227  RH  059%=      5-min Rain = 0
KCR1 210212Z 16010KT 32/23 A2966 RMK A01 T03180228  RH  059%=      5-min Rain = 0
KCR1 210213Z 16010KT 32/23 A2966 RMK A01 T03180228  RH  059%=      5-min Rain = 0
KCR1 210214Z 16010KT 32/23 A2966 RMK A01 T03170228  RH  059%=      5-min Rain = 0
KCR1 210215Z 16010KT 32/23 A2966 RMK A01 T03160228  RH  060%=      5-min Rain = 0
KCR1 210216Z 16011KT 32/23 A2966 RMK A01 T03150228  RH  060%=      5-min Rain = 0
KCR1 210217Z 16011KT 32/23 A2966 RMK A01 T03150228  RH  060%=      5-min Rain = 0
KCR1 210218Z 16010KT 32/23 A2966 RMK A01 T03150228  RH  060%=      5-min Rain = 0
KCR1 210219Z 16011KT 32/23 A2966 RMK A01 T03150228  RH  060%=      5-min Rain = 0
KCR1 210220Z 16011KT 32/23 A2966 RMK A01 T03150228  RH  060%=      5-min Rain = 0
KCR1 210221Z 16009KT 32/23 A2966 RMK A01 T03150229  RH  060%=      5-min Rain = 0
KCR1 210222Z 16010KT 31/23 A2966 RMK A01 T03140229  RH  061%=      5-min Rain = 0
KCR1 210223Z 16010KT 31/23 A2966 RMK A01 T03130229  RH  061%=      5-min Rain = 0
KCR1 210224Z 16009KT 31/23 A2966 RMK A01 T03120229  RH  061%=      5-min Rain = 0
KCR1 210225Z 16011KT 31/23 A2966 RMK A01 T03110228  RH  061%=      5-min Rain = 0
KCR1 210226Z 16009KT 31/23 A2966 RMK A01 T03110228  RH  061%=      5-min Rain = 0
KCR1 210227Z 16010KT 31/23 A2966 RMK A01 T03110228  RH  062%=      5-min Rain = 0
KCR1 210228Z 16010KT 31/23 A2966 RMK A01 T03100228  RH  062%=      5-min Rain = 0
KCR1 210229Z 16009KT 31/23 A2966 RMK A01 T03100228  RH  062%=      5-min Rain = 0
KCR1 210230Z 16010KT 31/23 A2966 RMK A01 T03100229  RH  062%=      5-min Rain = 0
KCR1 210231Z 16009KT 31/23 A2966 RMK A01 T03100229  RH  062%=      5-min Rain = 0
KCR1 210232Z 16010KT 31/23 A2966 RMK A01 T03090229  RH  062%=      5-min Rain = 0
KCR1 210233Z 16009KT 31/23 A2966 RMK A01 T03080229  RH  063%=      5-min Rain = 0
KCR1 210234Z 16010KT 31/23 A2966 RMK A01 T03070228  RH  063%=      5-min Rain = 0
KCR1 210235Z 16010KT 31/23 A2966 RMK A01 T03070229  RH  063%=      5-min Rain = 0
KCR1 210236Z 16009KT 31/23 A2966 RMK A01 T03070229  RH  063%=      5-min Rain = 0
KCR1 210237Z 16010KT 31/23 A2966 RMK A01 T03070229  RH  063%=      5-min Rain = 0
KCR1 210238Z 16010KT 31/23 A2966 RMK A01 T03060229  RH  063%=      5-min Rain = 0
KCR1 210239Z 16010KT 31/23 A2966 RMK A01 T03060229  RH  064%=      5-min Rain = 0
KCR1 210240Z 16010KT 31/23 A2966 RMK A01 T03050228  RH  064%=      5-min Rain = 0
KCR1 210241Z 16009KT 31/23 A2966 RMK A01 T03050228  RH  064%=      5-min Rain = 0
KCR1 210242Z 16010KT 31/23 A2966 RMK A01 T03050229  RH  064%=      5-min Rain = 0
KCR1 210243Z 16010KT 31/23 A2966 RMK A01 T03050229  RH  064%=      5-min Rain = 0
KCR1 210244Z 16009KT 31/23 A2966 RMK A01 T03050229  RH  064%=      5-min Rain = 0
KCR1 210245Z 16009KT 31/23 A2966 RMK A01 T03050229  RH  064%=      5-min Rain = 0
KCR1 210246Z 16009KT 31/23 A2966 RMK A01 T03050229  RH  064%=      5-min Rain = 0
KCR1 210247Z 16010KT 30/23 A2966 RMK A01 T03040229  RH  064%=      5-min Rain = 0
KCR1 210248Z 16010KT 30/23 A2966 RMK A01 T03040229  RH  064%=      5-min Rain = 0
KCR1 210249Z 16009KT 30/23 A2966 RMK A01 T03040229  RH  064%=      5-min Rain = 0
KCR1 210250Z 16009KT 30/23 A2966 RMK A01 T03040229  RH  064%=      5-min Rain = 0
KCR1 210251Z 16010KT 30/23 A2966 RMK A01 T03040230  RH  064%=      5-min Rain = 0
KCR1 210252Z 16009KT 30/23 A2966 RMK A01 T03040230  RH  065%=      5-min Rain = 0
KCR1 210253Z 16010KT 30/23 A2966 RMK A01 T03030230  RH  065%=      5-min Rain = 0
KCR1 210254Z 16011KT 30/23 A2966 RMK A01 T03020230  RH  065%=      5-min Rain = 0
KCR1 210255Z 16010KT 30/23 A2966 RMK A01 T03030230  RH  065%=      5-min Rain = 0
KCR1 210256Z 15009KT 30/23 A2966 RMK A01 T03030230  RH  065%=      5-min Rain = 0
KCR1 210257Z 16011KT 30/23 A2966 RMK A01 T03030230  RH  065%=      5-min Rain = 0
KCR1 210258Z 16011KT 30/23 A2967 RMK A01 T03030230  RH  065%=      5-min Rain = 0
KCR1 210259Z 16010KT 30/23 A2967 RMK A01 T03040231  RH  065%=      5-min Rain = 0
KCR1 210300Z 16010KT 30/23 A2967 RMK A01 T03040231  RH  065%=      5-min Rain = 0
KCR1 210301Z 16010KT 30/23 A2967 RMK A01 T03030231  RH  065%=      5-min Rain = 0
KCR1 210302Z 16010KT 30/23 A2967 RMK A01 T03030231  RH  066%=      5-min Rain = 0
KCR1 210303Z 16011KT 30/23 A2967 RMK A01 T03030232  RH  066%=      5-min Rain = 0
KCR1 210304Z 16011KT 30/23 A2967 RMK A01 T03030231  RH  066%=      5-min Rain = 0
KCR1 210305Z 16011KT 30/23 A2967 RMK A01 T03030232  RH  066%=      5-min Rain = 0
KCR1 210306Z 16011KT 30/23 A2967 RMK A01 T03030232  RH  066%=      5-min Rain = 0
KCR1 210307Z 16010KT 30/23 A2967 RMK A01 T03030232  RH  066%=      5-min Rain = 0
KCR1 210308Z 16010KT 30/23 A2967 RMK A01 T03020232  RH  066%=      5-min Rain = 0
KCR1 210309Z 17011KT 30/23 A2967 RMK A01 T03020232  RH  066%=      5-min Rain = 0
KCR1 210310Z 16011KT 30/23 A2967 RMK A01 T03010232  RH  066%=      5-min Rain = 0
KCR1 210311Z 16010KT 30/23 A2967 RMK A01 T03020232  RH  066%=      5-min Rain = 0
KCR1 210312Z 16011KT 30/23 A2967 RMK A01 T03020232  RH  066%=      5-min Rain = 0
KCR1 210313Z 16012KT 30/23 A2967 RMK A01 T03010232  RH  066%=      5-min Rain = 0
KCR1 210314Z 16011KT 30/23 A2967 RMK A01 T03020231  RH  066%=      5-min Rain = 0
KCR1 210315Z 16012G17KT 30/23 A2967 RMK A01 T03030231  RH  066%=      5-min Rain = 0
KCR1 210316Z 16013KT 30/23 A2967 RMK A01 T03040231  RH  065%=      5-min Rain = 0
KCR1 210317Z 16012KT 30/23 A2967 RMK A01 T03040231  RH  065%=      5-min Rain = 0
KCR1 210318Z 16012KT 30/23 A2967 RMK A01 T03040231  RH  065%=      5-min Rain = 0
KCR1 210319Z 16012KT 31/23 A2967 RMK A01 T03050230  RH  065%=      5-min Rain = 0
KCR1 210320Z 16011KT 31/23 A2967 RMK A01 T03050230  RH  065%=      5-min Rain = 0
KCR1 210321Z 17013KT 30/23 A2967 RMK A01 T03040230  RH  065%=      5-min Rain = 0
KCR1 210322Z 17011G16KT 30/23 A2967 RMK A01 T03040230  RH  065%=      5-min Rain = 0
KCR1 210323Z 17010KT 30/23 A2967 RMK A01 T03040230  RH  065%=      5-min Rain = 0
KCR1 210324Z 17011KT 30/23 A2967 RMK A01 T03030229  RH  065%=      5-min Rain = 0
KCR1 210325Z 17012KT 30/23 A2967 RMK A01 T03030229  RH  065%=      5-min Rain = 0
KCR1 210326Z 17011KT 30/23 A2967 RMK A01 T03030229  RH  064%=      5-min Rain = 0
KCR1 210327Z 17012KT 30/23 A2967 RMK A01 T03040229  RH  064%=      5-min Rain = 0
KCR1 210328Z 17012KT 30/23 A2967 RMK A01 T03040228  RH  064%=      5-min Rain = 0
KCR1 210329Z 17013KT 30/23 A2967 RMK A01 T03040228  RH  064%=      5-min Rain = 0
KCR1 210330Z 17012KT 31/23 A2967 RMK A01 T03050227  RH  063%=      5-min Rain = 0
KCR1 210331Z 17012KT 31/23 A2967 RMK A01 T03050227  RH  063%=      5-min Rain = 0
KCR1 210332Z 17012KT 31/23 A2967 RMK A01 T03050227  RH  063%=      5-min Rain = 0
KCR1 210333Z 17011KT 31/23 A2967 RMK A01 T03050227  RH  063%=      5-min Rain = 0
KCR1 210334Z 16012KT 31/23 A2967 RMK A01 T03050227  RH  063%=      5-min Rain = 0
KCR1 210335Z 17011KT 31/23 A2967 RMK A01 T03050227  RH  063%=      5-min Rain = 0
KCR1 210336Z 17011KT 31/23 A2968 RMK A01 T03050226  RH  063%=      5-min Rain = 0
KCR1 210337Z 17011KT 30/23 A2968 RMK A01 T03040227  RH  063%=      5-min Rain = 0
KCR1 210338Z 17010KT 30/23 A2968 RMK A01 T03040227  RH  063%=      5-min Rain = 0
KCR1 210339Z 16010KT 30/23 A2968 RMK A01 T03030227  RH  064%=      5-min Rain = 0
KCR1 210340Z 17011KT 30/23 A2968 RMK A01 T03020227  RH  064%=      5-min Rain = 0
KCR1 210341Z 17011KT 30/23 A2968 RMK A01 T03020227  RH  064%=      5-min Rain = 0
KCR1 210342Z 17012KT 30/23 A2968 RMK A01 T03020227  RH  064%=      5-min Rain = 0
KCR1 210343Z 17011KT 30/23 A2968 RMK A01 T03020227  RH  064%=      5-min Rain = 0
KCR1 210344Z 17011KT 30/23 A2968 RMK A01 T03010227  RH  064%=      5-min Rain = 0
KCR1 210345Z 17011KT 30/23 A2968 RMK A01 T03010227  RH  064%=      5-min Rain = 0
KCR1 210346Z 17011KT 30/23 A2968 RMK A01 T03010227  RH  064%=      5-min Rain = 0
KCR1 210347Z 17011KT 30/23 A2968 RMK A01 T03010227  RH  065%=      5-min Rain = 0
KCR1 210348Z 17011KT 30/23 A2968 RMK A01 T03010227  RH  065%=      5-min Rain = 0
KCR1 210349Z 17011KT 30/23 A2968 RMK A01 T03010227  RH  065%=      5-min Rain = 0
KCR1 210350Z 17012KT 30/23 A2968 RMK A01 T03010227  RH  065%=      5-min Rain = 0
KCR1 210351Z 17011KT 30/23 A2968 RMK A01 T03010228  RH  065%=      5-min Rain = 0
KCR1 210352Z 17011KT 30/23 A2968 RMK A01 T03010228  RH  065%=      5-min Rain = 0
KCR1 210353Z 17011KT 30/23 A2968 RMK A01 T03010228  RH  065%=      5-min Rain = 0
KCR1 210354Z 17010KT 30/23 A2968 RMK A01 T03000228  RH  066%=      5-min Rain = 0
KCR1 210355Z 17012KT 30/23 A2968 RMK A01 T03000229  RH  066%=      5-min Rain = 0
KCR1 210356Z 17013KT 30/23 A2968 RMK A01 T02990228  RH  066%=      5-min Rain = 0
KCR1 210357Z 17012KT 30/23 A2968 RMK A01 T03000229  RH  065%=      5-min Rain = 0
KCR1 210358Z 17010KT 30/23 A2968 RMK A01 T03000229  RH  066%=      5-min Rain = 0
KCR1 210359Z 17013KT 30/23 A2968 RMK A01 T03000229  RH  066%=      5-min Rain = 0
KCR1 210400Z 17013KT 30/23 A2968 RMK A01 T02990229  RH  066%=      5-min Rain = 0
KCR1 210401Z 17012KT 30/23 A2968 RMK A01 T02990229  RH  066%=      5-min Rain = 0
KCR1 210402Z 17014KT 30/23 A2968 RMK A01 T03000229  RH  066%=      5-min Rain = 0
KCR1 210403Z 17014KT 30/23 A2968 RMK A01 T03010229  RH  065%=      5-min Rain = 0
KCR1 210404Z 17012KT 30/23 A2968 RMK A01 T03020229  RH  065%=      5-min Rain = 0
KCR1 210405Z 17011KT 30/23 A2968 RMK A01 T03010229  RH  065%=      5-min Rain = 0
KCR1 210406Z 17012KT 30/23 A2968 RMK A01 T03000229  RH  066%=      5-min Rain = 0
KCR1 210407Z 17012KT 30/23 A2968 RMK A01 T03000229  RH  066%=      5-min Rain = 0
KCR1 210408Z 17013KT 30/23 A2968 RMK A01 T03000229  RH  066%=      5-min Rain = 0
KCR1 210409Z 17012KT 30/23 A2969 RMK A01 T03000229  RH  066%=      5-min Rain = 0
KCR1 210410Z 18012KT 30/23 A2968 RMK A01 T02990229  RH  066%=      5-min Rain = 0
KCR1 210411Z 17012KT 30/23 A2969 RMK A01 T02990229  RH  066%=      5-min Rain = 0
KCR1 210412Z 17011KT 30/23 A2969 RMK A01 T02990229  RH  066%=      5-min Rain = 0
KCR1 210413Z 17011KT 30/23 A2969 RMK A01 T02990229  RH  066%=      5-min Rain = 0
KCR1 210414Z 17012KT 30/23 A2969 RMK A01 T02980229  RH  066%=      5-min Rain = 0
KCR1 210415Z 17012KT 30/23 A2969 RMK A01 T02980229  RH  066%=      5-min Rain = 0
KCR1 210416Z 17012KT 30/23 A2969 RMK A01 T02980229  RH  066%=      5-min Rain = 0
KCR1 210417Z 17011KT 30/23 A2969 RMK A01 T02980229  RH  066%=      5-min Rain = 0
KCR1 210418Z 17012KT 30/23 A2969 RMK A01 T02980229  RH  067%=      5-min Rain = 0
KCR1 210419Z 17012KT 30/23 A2969 RMK A01 T02980229  RH  066%=      5-min Rain = 0
KCR1 210420Z 17011KT 30/23 A2969 RMK A01 T02980229  RH  066%=      5-min Rain = 0
KCR1 210421Z 17011KT 30/23 A2969 RMK A01 T02990229  RH  066%=      5-min Rain = 0
KCR1 210422Z 17011KT 30/23 A2969 RMK A01 T02990229  RH  066%=      5-min Rain = 0
KCR1 210423Z 17011KT 30/23 A2969 RMK A01 T02980229  RH  066%=      5-min Rain = 0
KCR1 210424Z 17012KT 30/23 A2969 RMK A01 T02980229  RH  066%=      5-min Rain = 0
KCR1 210425Z 17011KT 30/23 A2969 RMK A01 T02980229  RH  066%=      5-min Rain = 0
KCR1 210426Z 17011KT 30/23 A2969 RMK A01 T02980229  RH  066%=      5-min Rain = 0
KCR1 210427Z 18011KT 30/23 A2969 RMK A01 T02980229  RH  067%=      5-min Rain = 0
KCR1 210428Z 17012KT 30/23 A2969 RMK A01 T02980229  RH  066%=      5-min Rain = 0
KCR1 210429Z 17012KT 30/23 A2969 RMK A01 T02990229  RH  066%=      5-min Rain = 0
KCR1 210430Z 17012KT 30/23 A2969 RMK A01 T02990230  RH  066%=      5-min Rain = 0
KCR1 210431Z 17013KT 30/23 A2969 RMK A01 T02990230  RH  066%=      5-min Rain = 0
KCR1 210432Z 17011KT 30/23 A2969 RMK A01 T02990229  RH  066%=      5-min Rain = 0
KCR1 210433Z 17011KT 30/23 A2969 RMK A01 T02990230  RH  066%=      5-min Rain = 0
KCR1 210434Z 17012KT 30/23 A2969 RMK A01 T02990230  RH  066%=      5-min Rain = 0
KCR1 210435Z 17012KT 30/23 A2969 RMK A01 T02990230  RH  066%=      5-min Rain = 0
KCR1 210436Z 17012KT 30/23 A2969 RMK A01 T02990230  RH  066%=      5-min Rain = 0
KCR1 210437Z 17011KT 30/23 A2969 RMK A01 T02990230  RH  066%=      5-min Rain = 0
KCR1 210438Z 17012KT 30/23 A2969 RMK A01 T02990230  RH  066%=      5-min Rain = 0
KCR1 210439Z 17011KT 30/23 A2969 RMK A01 T02990230  RH  066%=      5-min Rain = 0
KCR1 210440Z 17013KT 30/23 A2969 RMK A01 T02990229  RH  066%=      5-min Rain = 0
KCR1 210441Z 17011KT 30/23 A2969 RMK A01 T02990229  RH  066%=      5-min Rain = 0
KCR1 210442Z 17013KT 30/23 A2969 RMK A01 T02990229  RH  066%=      5-min Rain = 0
KCR1 210443Z 17013KT 30/23 A2969 RMK A01 T03000229  RH  066%=      5-min Rain = 0
KCR1 210444Z 17013KT 30/23 A2969 RMK A01 T03000229  RH  066%=      5-min Rain = 0
KCR1 210445Z 18014KT 30/23 A2969 RMK A01 T03010229  RH  066%=      5-min Rain = 0
KCR1 210446Z 17011KT 30/23 A2969 RMK A01 T03010229  RH  065%=      5-min Rain = 0
KCR1 210447Z 17013KT 30/23 A2969 RMK A01 T03010229  RH  065%=      5-min Rain = 0
KCR1 210448Z 17014G20KT 30/23 A2969 RMK A01 T03010229  RH  065%=      5-min Rain = 0
KCR1 210449Z 17014KT 30/23 A2969 RMK A01 T03020229  RH  065%=      5-min Rain = 0
KCR1 210450Z 17012KT 30/23 A2969 RMK A01 T03030229  RH  065%=      5-min Rain = 0
KCR1 210451Z 17012G17KT 30/23 A2969 RMK A01 T03020229  RH  065%=      5-min Rain = 0
KCR1 210452Z 17013KT 30/23 A2969 RMK A01 T03020229  RH  065%=      5-min Rain = 0
KCR1 210453Z 17012KT 30/23 A2969 RMK A01 T03010229  RH  065%=      5-min Rain = 0
KCR1 210454Z 17012KT 30/23 A2969 RMK A01 T03010229  RH  065%=      5-min Rain = 0
KCR1 210455Z 17013KT 30/23 A2969 RMK A01 T03010229  RH  065%=      5-min Rain = 0
KCR1 210456Z 17013KT 30/23 A2969 RMK A01 T03010228  RH  065%=      5-min Rain = 0
KCR1 210457Z 17012KT 30/23 A2969 RMK A01 T03010228  RH  065%=      5-min Rain = 0
KCR1 210458Z 17012KT 30/23 A2969 RMK A01 T03010229  RH  065%=      5-min Rain = 0
KCR1 210459Z 18012KT 30/23 A2969 RMK A01 T03010229  RH  065%=      5-min Rain = 0

Page generated in 0.0695 seconds.